Time,TemperatureF,DewpointF,PressureIn,WindDirection,WindDirectionDegrees,WindSpeedMPH,WindSpeedGustMPH,Humidity,HourlyPrecipIn,Conditions,Clouds,dailyrainin,SoftwareType,DateUTC
2013-05-20 00:00:00,46.6,28.9,29.69,WSW,252,5.0,6.0,50,0.00,,,0.00,Wunderground v.1.15,2013-05-20 06:00:00,
2013-05-20 00:01:00,46.6,28.9,29.69,WNW,291,5.0,9.0,50,0.00,,,0.00,Wunderground v.1.15,2013-05-20 06:01:00,
2013-05-20 00:02:00,46.7,29.0,29.69,West,276,5.0,9.0,50,0.00,,,0.00,Wunderground v.1.15,2013-05-20 06:02:00,
2013-05-20 00:05:00,46.7,29.0,29.69,SW,236,6.0,9.0,50,0.00,,,0.00,Wunderground v.1.15,2013-05-20 06:05:00,
2013-05-20 00:06:00,46.7,29.5,29.69,South,183,6.0,9.0,51,0.00,,,0.00,Wunderground v.1.15,2013-05-20 06:06:00,
2013-05-20 00:08:00,46.6,29.4,29.69,West,260,6.0,10.0,51,0.00,,,0.00,Wunderground v.1.15,2013-05-20 06:08:00,
2013-05-20 00:09:00,46.6,29.4,29.69,WSW,246,7.0,7.0,51,0.00,,,0.00,Wunderground v.1.15,2013-05-20 06:09:00,
2013-05-20 00:12:00,46.5,29.3,29.69,WSW,240,7.0,9.0,51,0.00,,,0.00,Wunderground v.1.15,2013-05-20 06:12:00,
2013-05-20 00:14:00,46.5,29.3,29.69,WSW,255,8.0,9.0,51,0.00,,,0.00,Wunderground v.1.15,2013-05-20 06:14:00,
2013-05-20 00:15:00,46.5,29.3,29.69,SW,219,8.0,9.0,51,0.00,,,0.00,Wunderground v.1.15,2013-05-20 06:15:00,
2013-05-20 00:17:00,46.5,29.3,29.69,SW,225,8.0,9.0,51,0.00,,,0.00,Wunderground v.1.15,2013-05-20 06:17:00,
2013-05-20 00:21:00,46.5,29.3,29.69,SW,226,9.0,11.0,51,0.00,,,0.00,Wunderground v.1.15,2013-05-20 06:21:00,
2013-05-20 00:22:00,46.5,29.3,29.69,SSW,211,9.0,11.0,51,0.00,,,0.00,Wunderground v.1.15,2013-05-20 06:22:00,
2013-05-20 00:23:00,46.5,29.3,29.69,SW,217,8.0,11.0,51,0.00,,,0.00,Wunderground v.1.15,2013-05-20 06:23:00,
2013-05-20 00:26:00,46.5,29.3,29.69,SW,236,9.0,16.0,51,0.00,,,0.00,Wunderground v.1.15,2013-05-20 06:26:00,
2013-05-20 00:27:00,46.5,29.3,29.69,WSW,255,9.0,16.0,51,0.00,,,0.00,Wunderground v.1.15,2013-05-20 06:27:00,
2013-05-20 00:31:00,46.5,29.3,29.69,WSW,239,10.0,12.0,51,0.00,,,0.00,Wunderground v.1.15,2013-05-20 06:31:00,
2013-05-20 00:32:00,46.6,28.9,29.69,SSW,213,10.0,12.0,50,0.00,,,0.00,Wunderground v.1.15,2013-05-20 06:32:00,
2013-05-20 00:34:00,46.6,28.9,29.69,West,280,10.0,14.0,50,0.00,,,0.00,Wunderground v.1.15,2013-05-20 06:34:00,
2013-05-20 00:38:00,46.6,29.4,29.68,West,267,10.0,14.0,51,0.00,,,0.00,Wunderground v.1.15,2013-05-20 06:38:00,
2013-05-20 00:40:00,46.7,29.0,29.68,West,266,10.0,10.0,50,0.00,,,0.00,Wunderground v.1.15,2013-05-20 06:40:00,
2013-05-20 00:41:00,46.7,29.0,29.68,West,269,11.0,11.0,50,0.00,,,0.00,Wunderground v.1.15,2013-05-20 06:41:00,
2013-05-20 00:44:00,46.7,29.0,29.68,WSW,257,10.0,11.0,50,0.00,,,0.00,Wunderground v.1.15,2013-05-20 06:44:00,
2013-05-20 00:45:00,46.7,29.0,29.69,WSW,249,10.0,12.0,50,0.00,,,0.00,Wunderground v.1.15,2013-05-20 06:45:00,
2013-05-20 00:47:00,46.7,29.0,29.68,West,278,9.0,12.0,50,0.00,,,0.00,Wunderground v.1.15,2013-05-20 06:47:00,
2013-05-20 00:48:00,46.7,29.5,29.68,WSW,246,9.0,12.0,51,0.00,,,0.00,Wunderground v.1.15,2013-05-20 06:48:00,
2013-05-20 00:51:00,46.6,29.4,29.69,WSW,239,9.0,10.0,51,0.00,,,0.00,Wunderground v.1.15,2013-05-20 06:51:00,
2013-05-20 00:52:00,46.6,29.4,29.69,WSW,255,9.0,13.0,51,0.00,,,0.00,Wunderground v.1.15,2013-05-20 06:52:00,
2013-05-20 00:55:00,46.5,29.3,29.68,SW,236,9.0,13.0,51,0.00,,,0.00,Wunderground v.1.15,2013-05-20 06:55:00,
2013-05-20 00:58:00,46.5,29.3,29.68,WSW,255,9.0,13.0,51,0.00,,,0.00,Wunderground v.1.15,2013-05-20 06:58:00,
2013-05-20 01:01:00,46.5,29.3,29.68,WSW,246,9.0,13.0,51,0.00,,,0.00,Wunderground v.1.15,2013-05-20 07:01:00,
2013-05-20 01:02:00,46.5,29.3,29.68,West,276,10.0,13.0,51,0.00,,,0.00,Wunderground v.1.15,2013-05-20 07:02:00,
2013-05-20 01:05:00,46.4,29.2,29.68,SSW,211,9.0,13.0,51,0.00,,,0.00,Wunderground v.1.15,2013-05-20 07:05:00,
2013-05-20 01:07:00,46.3,29.1,29.68,West,263,9.0,13.0,51,0.00,,,0.00,Wunderground v.1.15,2013-05-20 07:07:00,
2013-05-20 01:08:00,46.4,29.2,29.68,SSW,204,9.0,13.0,51,0.00,,,0.00,Wunderground v.1.15,2013-05-20 07:08:00,
2013-05-20 01:10:00,46.3,29.1,29.68,WSW,256,9.0,9.0,51,0.00,,,0.00,Wunderground v.1.15,2013-05-20 07:10:00,
2013-05-20 01:11:00,46.4,29.2,29.68,SW,221,9.0,11.0,51,0.00,,,0.00,Wunderground v.1.15,2013-05-20 07:11:00,
2013-05-20 01:15:00,46.3,29.1,29.68,WSW,246,8.0,11.0,51,0.00,,,0.00,Wunderground v.1.15,2013-05-20 07:15:00,
2013-05-20 01:16:00,46.3,29.6,29.68,SW,236,8.0,11.0,52,0.00,,,0.00,Wunderground v.1.15,2013-05-20 07:16:00,
2013-05-20 01:17:00,46.3,29.6,29.68,WSW,246,8.0,11.0,52,0.00,,,0.00,Wunderground v.1.15,2013-05-20 07:17:00,
2013-05-20 01:21:00,46.2,29.5,29.68,West,274,7.0,7.0,52,0.00,,,0.00,Wunderground v.1.15,2013-05-20 07:21:00,
2013-05-20 01:23:00,46.2,29.5,29.68,SSW,211,7.0,7.0,52,0.00,,,0.00,Wunderground v.1.15,2013-05-20 07:23:00,
2013-05-20 01:24:00,46.2,29.1,29.68,SSW,212,7.0,9.0,51,0.00,,,0.00,Wunderground v.1.15,2013-05-20 07:24:00,
2013-05-20 01:26:00,46.1,29.0,29.68,West,266,6.0,9.0,51,0.00,,,0.00,Wunderground v.1.15,2013-05-20 07:26:00,
2013-05-20 01:29:00,46.1,29.0,29.68,West,264,6.0,9.0,51,0.00,,,0.00,Wunderground v.1.15,2013-05-20 07:29:00,
2013-05-20 01:32:00,46.1,29.0,29.68,WSW,244,6.0,7.0,51,0.00,,,0.00,Wunderground v.1.15,2013-05-20 07:32:00,
2013-05-20 01:33:00,46.1,29.0,29.68,West,264,6.0,7.0,51,0.00,,,0.00,Wunderground v.1.15,2013-05-20 07:33:00,
2013-05-20 01:36:00,46.1,29.0,29.68,West,269,6.0,8.0,51,0.00,,,0.00,Wunderground v.1.15,2013-05-20 07:36:00,
2013-05-20 01:39:00,46.1,29.0,29.68,WSW,252,7.0,9.0,51,0.00,,,0.00,Wunderground v.1.15,2013-05-20 07:39:00,
2013-05-20 01:40:00,46.1,29.0,29.68,SW,222,7.0,7.0,51,0.00,,,0.00,Wunderground v.1.15,2013-05-20 07:40:00,
2013-05-20 01:41:00,46.1,29.0,29.68,SW,221,6.0,7.0,51,0.00,,,0.00,Wunderground v.1.15,2013-05-20 07:41:00,
2013-05-20 01:45:00,46.2,29.1,29.68,West,262,6.0,9.0,51,0.00,,,0.00,Wunderground v.1.15,2013-05-20 07:45:00,
2013-05-20 01:47:00,46.2,29.1,29.68,SW,219,7.0,10.0,51,0.00,,,0.00,Wunderground v.1.15,2013-05-20 07:47:00,
2013-05-20 01:49:00,46.3,29.1,29.68,WSW,245,7.0,10.0,51,0.00,,,0.00,Wunderground v.1.15,2013-05-20 07:49:00,
2013-05-20 01:51:00,46.3,29.1,29.67,SW,228,7.0,9.0,51,0.00,,,0.00,Wunderground v.1.15,2013-05-20 07:51:00,
2013-05-20 01:52:00,46.3,29.1,29.67,WSW,257,7.0,9.0,51,0.00,,,0.00,Wunderground v.1.15,2013-05-20 07:52:00,
2013-05-20 01:55:00,46.3,29.1,29.67,SW,231,7.0,9.0,51,0.00,,,0.00,Wunderground v.1.15,2013-05-20 07:55:00,
2013-05-20 01:57:00,46.3,29.1,29.67,SW,226,7.0,9.0,51,0.00,,,0.00,Wunderground v.1.15,2013-05-20 07:57:00,
2013-05-20 01:58:00,46.3,29.6,29.67,SW,224,7.0,9.0,52,0.00,,,0.00,Wunderground v.1.15,2013-05-20 07:58:00,
2013-05-20 01:59:00,46.3,29.1,29.67,SW,225,7.0,9.0,51,0.00,,,0.00,Wunderground v.1.15,2013-05-20 07:59:00,
2013-05-20 02:02:00,46.3,29.6,29.67,SW,232,7.0,8.0,52,0.00,,,0.00,Wunderground v.1.15,2013-05-20 08:02:00,
2013-05-20 02:05:00,46.3,29.6,29.67,SW,221,7.0,9.0,52,0.00,,,0.00,Wunderground v.1.15,2013-05-20 08:05:00,
2013-05-20 02:06:00,46.3,29.6,29.67,SW,226,7.0,9.0,52,0.00,,,0.00,Wunderground v.1.15,2013-05-20 08:06:00,
2013-05-20 02:09:00,46.4,29.7,29.67,WSW,252,7.0,11.0,52,0.00,,,0.00,Wunderground v.1.15,2013-05-20 08:09:00,
2013-05-20 02:11:00,46.3,29.6,29.67,WSW,245,7.0,7.0,52,0.00,,,0.00,Wunderground v.1.15,2013-05-20 08:11:00,
2013-05-20 02:12:00,46.3,29.6,29.67,West,274,7.0,7.0,52,0.00,,,0.00,Wunderground v.1.15,2013-05-20 08:12:00,
2013-05-20 02:14:00,46.3,30.1,29.67,SW,222,7.0,9.0,53,0.00,,,0.00,Wunderground v.1.15,2013-05-20 08:14:00,
2013-05-20 02:17:00,46.3,30.1,29.67,SW,229,7.0,11.0,53,0.00,,,0.00,Wunderground v.1.15,2013-05-20 08:17:00,
2013-05-20 02:21:00,46.2,30.0,29.68,WNW,291,7.0,8.0,53,0.00,,,0.00,Wunderground v.1.15,2013-05-20 08:21:00,
2013-05-20 02:22:00,46.2,30.0,29.68,WSW,257,7.0,10.0,53,0.00,,,0.00,Wunderground v.1.15,2013-05-20 08:22:00,
2013-05-20 02:23:00,46.2,30.0,29.68,West,271,7.0,10.0,53,0.00,,,0.00,Wunderground v.1.15,2013-05-20 08:23:00,
2013-05-20 02:24:00,46.2,30.0,29.68,SW,229,7.0,10.0,53,0.00,,,0.00,Wunderground v.1.15,2013-05-20 08:24:00,
2013-05-20 02:29:00,46.2,30.0,29.68,SW,224,7.0,10.0,53,0.00,,,0.00,Wunderground v.1.15,2013-05-20 08:29:00,
2013-05-20 02:32:00,46.2,30.5,29.68,WNW,297,8.0,13.0,54,0.00,,,0.00,Wunderground v.1.15,2013-05-20 08:32:00,
2013-05-20 02:33:00,46.2,30.5,29.68,WSW,239,7.0,13.0,54,0.00,,,0.00,Wunderground v.1.15,2013-05-20 08:33:00,
2013-05-20 02:35:00,46.2,30.5,29.68,SSW,192,7.0,13.0,54,0.00,,,0.00,Wunderground v.1.15,2013-05-20 08:35:00,
2013-05-20 02:39:00,46.2,30.5,29.68,SW,221,7.0,13.0,54,0.00,,,0.00,Wunderground v.1.15,2013-05-20 08:39:00,
2013-05-20 02:41:00,46.2,30.5,29.68,West,276,6.0,7.0,54,0.00,,,0.00,Wunderground v.1.15,2013-05-20 08:41:00,
2013-05-20 02:42:00,46.2,30.5,29.68,SW,231,6.0,7.0,54,0.00,,,0.00,Wunderground v.1.15,2013-05-20 08:42:00,
2013-05-20 02:43:00,46.2,30.5,29.68,WSW,245,6.0,7.0,54,0.00,,,0.00,Wunderground v.1.15,2013-05-20 08:43:00,
2013-05-20 02:44:00,46.2,30.5,29.68,West,267,6.0,7.0,54,0.00,,,0.00,Wunderground v.1.15,2013-05-20 08:44:00,
2013-05-20 02:46:00,46.2,30.5,29.68,West,263,5.0,7.0,54,0.00,,,0.00,Wunderground v.1.15,2013-05-20 08:46:00,
2013-05-20 02:50:00,46.2,30.5,29.68,SW,235,6.0,6.0,54,0.00,,,0.00,Wunderground v.1.15,2013-05-20 08:50:00,
2013-05-20 02:52:00,46.2,30.5,29.68,WSW,240,6.0,6.0,54,0.00,,,0.00,Wunderground v.1.15,2013-05-20 08:52:00,
2013-05-20 02:56:00,46.2,30.5,29.68,WSW,243,5.0,6.0,54,0.00,,,0.00,Wunderground v.1.15,2013-05-20 08:56:00,
2013-05-20 02:57:00,46.2,30.5,29.68,SW,229,5.0,6.0,54,0.00,,,0.00,Wunderground v.1.15,2013-05-20 08:57:00,
2013-05-20 02:58:00,46.2,30.5,29.68,West,270,5.0,6.0,54,0.00,,,0.00,Wunderground v.1.15,2013-05-20 08:58:00,
2013-05-20 02:59:00,46.2,30.5,29.68,West,261,5.0,6.0,54,0.00,,,0.00,Wunderground v.1.15,2013-05-20 08:59:00,
2013-05-20 03:04:00,46.2,30.5,29.68,SW,226,4.0,4.0,54,0.00,,,0.00,Wunderground v.1.15,2013-05-20 09:04:00,
2013-05-20 03:05:00,46.2,30.5,29.68,SW,229,4.0,4.0,54,0.00,,,0.00,Wunderground v.1.15,2013-05-20 09:05:00,
2013-05-20 03:11:00,46.2,30.5,29.68,SW,218,4.0,6.0,54,0.00,,,0.00,Wunderground v.1.15,2013-05-20 09:11:00,
2013-05-20 03:12:00,46.2,30.5,29.68,WSW,239,4.0,8.0,54,0.00,,,0.00,Wunderground v.1.15,2013-05-20 09:12:00,
2013-05-20 03:13:00,46.1,30.4,29.68,West,276,4.0,8.0,54,0.00,,,0.00,Wunderground v.1.15,2013-05-20 09:13:00,
2013-05-20 03:18:00,46.1,30.4,29.68,SSW,208,4.0,8.0,54,0.00,,,0.00,Wunderground v.1.15,2013-05-20 09:18:00,
2013-05-20 03:19:00,46.1,30.4,29.69,SW,229,4.0,8.0,54,0.00,,,0.00,Wunderground v.1.15,2013-05-20 09:19:00,
2013-05-20 03:20:00,46.1,30.4,29.69,West,259,4.0,4.0,54,0.00,,,0.00,Wunderground v.1.15,2013-05-20 09:20:00,
2013-05-20 03:23:00,46.1,30.4,29.69,WSW,239,4.0,4.0,54,0.00,,,0.00,Wunderground v.1.15,2013-05-20 09:23:00,
2013-05-20 03:25:00,46.0,30.3,29.69,West,280,3.0,4.0,54,0.00,,,0.00,Wunderground v.1.15,2013-05-20 09:25:00,
2013-05-20 03:27:00,46.0,30.3,29.69,NE,44,2.0,4.0,54,0.00,,,0.00,Wunderground v.1.15,2013-05-20 09:27:00,
2013-05-20 03:28:00,45.9,30.2,29.69,ENE,63,2.0,4.0,54,0.00,,,0.00,Wunderground v.1.15,2013-05-20 09:28:00,
2013-05-20 03:32:00,45.9,30.2,29.69,NE,53,1.0,4.0,54,0.00,,,0.00,Wunderground v.1.15,2013-05-20 09:32:00,
2013-05-20 03:33:00,45.8,30.1,29.69,ESE,114,1.0,4.0,54,0.00,,,0.00,Wunderground v.1.15,2013-05-20 09:33:00,
2013-05-20 03:34:00,45.8,30.1,29.69,East,99,2.0,4.0,54,0.00,,,0.00,Wunderground v.1.15,2013-05-20 09:34:00,
2013-05-20 03:35:00,45.7,30.0,29.69,East,96,2.0,4.0,54,0.00,,,0.00,Wunderground v.1.15,2013-05-20 09:35:00,
2013-05-20 03:39:00,45.6,30.3,29.70,East,94,1.0,4.0,55,0.00,,,0.00,Wunderground v.1.15,2013-05-20 09:39:00,
2013-05-20 03:40:00,45.6,30.3,29.70,East,94,1.0,1.0,55,0.00,,,0.00,Wunderground v.1.15,2013-05-20 09:40:00,
2013-05-20 03:42:00,45.5,30.3,29.69,NE,54,1.0,3.0,55,0.00,,,0.00,Wunderground v.1.15,2013-05-20 09:42:00,
2013-05-20 03:43:00,45.5,30.3,29.70,WSW,255,1.0,3.0,55,0.00,,,0.00,Wunderground v.1.15,2013-05-20 09:43:00,
2013-05-20 03:45:00,45.4,30.2,29.70,WSW,249,1.0,3.0,55,0.00,,,0.00,Wunderground v.1.15,2013-05-20 09:45:00,
2013-05-20 03:46:00,45.5,30.3,29.70,NE,43,1.0,3.0,55,0.00,,,0.00,Wunderground v.1.15,2013-05-20 09:46:00,
2013-05-20 03:48:00,45.5,30.7,29.70,NNE,16,1.0,3.0,56,0.00,,,0.00,Wunderground v.1.15,2013-05-20 09:48:00,
2013-05-20 03:49:00,45.4,30.6,29.70,NNW,347,2.0,3.0,56,0.00,,,0.00,Wunderground v.1.15,2013-05-20 09:49:00,
2013-05-20 03:53:00,45.2,30.9,29.70,WNW,298,2.0,5.0,57,0.00,,,0.00,Wunderground v.1.15,2013-05-20 09:53:00,
2013-05-20 03:54:00,45.2,30.9,29.70,WNW,297,2.0,5.0,57,0.00,,,0.00,Wunderground v.1.15,2013-05-20 09:54:00,
2013-05-20 03:55:00,45.1,30.8,29.70,NW,305,2.0,5.0,57,0.00,,,0.00,Wunderground v.1.15,2013-05-20 09:55:00,
2013-05-20 03:58:00,44.8,31.3,29.70,North,354,2.0,6.0,59,0.00,,,0.00,Wunderground v.1.15,2013-05-20 09:58:00,
2013-05-20 04:00:00,44.7,31.2,29.70,NNE,18,2.0,2.0,59,0.00,,,0.00,Wunderground v.1.15,2013-05-20 10:00:00,
2013-05-20 04:02:00,44.6,31.6,29.70,ESE,105,2.0,2.0,60,0.00,,,0.00,Wunderground v.1.15,2013-05-20 10:02:00,
2013-05-20 04:03:00,44.5,31.5,29.70,ESE,106,2.0,2.0,60,0.00,,,0.00,Wunderground v.1.15,2013-05-20 10:03:00,
2013-05-20 04:08:00,44.3,31.7,29.70,NNW,345,1.0,2.0,61,0.00,,,0.00,Wunderground v.1.15,2013-05-20 10:08:00,
2013-05-20 04:10:00,44.2,31.6,29.70,NNW,347,0.0,0.0,61,0.00,,,0.00,Wunderground v.1.15,2013-05-20 10:10:00,
2013-05-20 04:11:00,44.2,32.0,29.70,WNW,293,0.0,0.0,62,0.00,,,0.00,Wunderground v.1.15,2013-05-20 10:11:00,
2013-05-20 04:12:00,44.2,31.6,29.70,WNW,294,0.0,0.0,61,0.00,,,0.00,Wunderground v.1.15,2013-05-20 10:12:00,
2013-05-20 04:14:00,44.1,31.9,29.70,WNW,293,0.0,0.0,62,0.00,,,0.00,Wunderground v.1.15,2013-05-20 10:14:00,
2013-05-20 04:16:00,44.1,32.3,29.70,ENE,58,0.0,2.0,63,0.00,,,0.00,Wunderground v.1.15,2013-05-20 10:16:00,
2013-05-20 04:19:00,44.1,31.9,29.70,WSW,256,1.0,1.0,62,0.00,,,0.00,Wunderground v.1.15,2013-05-20 10:19:00,
2013-05-20 04:20:00,44.1,31.9,29.70,WSW,254,1.0,1.0,62,0.00,,,0.00,Wunderground v.1.15,2013-05-20 10:20:00,
2013-05-20 04:24:00,44.0,32.2,29.70,WNW,297,1.0,2.0,63,0.00,,,0.00,Wunderground v.1.15,2013-05-20 10:24:00,
2013-05-20 04:27:00,43.9,32.5,29.70,East,92,1.0,2.0,64,0.00,,,0.00,Wunderground v.1.15,2013-05-20 10:27:00,
2013-05-20 04:28:00,43.9,32.5,29.70,East,92,0.0,2.0,64,0.00,,,0.00,Wunderground v.1.15,2013-05-20 10:28:00,
2013-05-20 04:29:00,43.9,32.5,29.70,SE,128,0.0,2.0,64,0.00,,,0.00,Wunderground v.1.15,2013-05-20 10:29:00,
2013-05-20 04:31:00,43.8,32.8,29.70,East,84,1.0,2.0,65,0.00,,,0.00,Wunderground v.1.15,2013-05-20 10:31:00,
2013-05-20 04:34:00,43.7,32.7,29.70,SE,140,1.0,2.0,65,0.00,,,0.00,Wunderground v.1.15,2013-05-20 10:34:00,
2013-05-20 04:35:00,43.7,33.1,29.71,SE,139,1.0,2.0,66,0.00,,,0.00,Wunderground v.1.15,2013-05-20 10:35:00,
2013-05-20 04:37:00,43.6,33.0,29.71,SE,138,0.0,2.0,66,0.00,,,0.00,Wunderground v.1.15,2013-05-20 10:37:00,
2013-05-20 04:38:00,43.6,33.0,29.71,East,84,0.0,3.0,66,0.00,,,0.00,Wunderground v.1.15,2013-05-20 10:38:00,
2013-05-20 04:39:00,43.4,33.2,29.71,WNW,293,1.0,1.0,67,0.00,,,0.00,Wunderground v.1.15,2013-05-20 10:39:00,
2013-05-20 04:40:00,43.3,33.1,29.71,NE,43,1.0,1.0,67,0.00,,,0.00,Wunderground v.1.15,2013-05-20 10:40:00,
2013-05-20 04:45:00,43.0,33.5,29.71,East,82,1.0,3.0,69,0.00,,,0.00,Wunderground v.1.15,2013-05-20 10:45:00,
2013-05-20 04:46:00,42.9,33.8,29.71,ENE,64,1.0,3.0,70,0.00,,,0.00,Wunderground v.1.15,2013-05-20 10:46:00,
2013-05-20 04:47:00,42.8,33.7,29.71,ENE,64,1.0,3.0,70,0.00,,,0.00,Wunderground v.1.15,2013-05-20 10:47:00,
2013-05-20 04:48:00,42.7,33.6,29.71,East,81,1.0,3.0,70,0.00,,,0.00,Wunderground v.1.15,2013-05-20 10:48:00,
2013-05-20 04:51:00,42.6,33.5,29.71,West,270,2.0,2.0,70,0.00,,,0.00,Wunderground v.1.15,2013-05-20 10:51:00,
2013-05-20 04:53:00,42.6,33.5,29.71,SSE,150,2.0,2.0,70,0.00,,,0.00,Wunderground v.1.15,2013-05-20 10:53:00,
2013-05-20 04:54:00,42.6,33.9,29.71,ENE,70,1.0,2.0,71,0.00,,,0.00,Wunderground v.1.15,2013-05-20 10:54:00,
2013-05-20 04:56:00,42.6,33.5,29.71,NW,314,1.0,3.0,70,0.00,,,0.00,Wunderground v.1.15,2013-05-20 10:56:00,
2013-05-20 04:57:00,42.6,33.5,29.71,NW,314,1.0,3.0,70,0.00,,,0.00,Wunderground v.1.15,2013-05-20 10:57:00,
2013-05-20 05:02:00,42.5,33.8,29.71,North,9,1.0,1.0,71,0.00,,,0.00,Wunderground v.1.15,2013-05-20 11:02:00,
2013-05-20 05:03:00,42.4,33.7,29.71,NE,49,1.0,1.0,71,0.00,,,0.00,Wunderground v.1.15,2013-05-20 11:03:00,
2013-05-20 05:06:00,42.3,33.9,29.71,NNE,33,1.0,2.0,72,0.00,,,0.00,Wunderground v.1.15,2013-05-20 11:06:00,
2013-05-20 05:07:00,42.3,33.9,29.71,NNE,32,1.0,2.0,72,0.00,,,0.00,Wunderground v.1.15,2013-05-20 11:07:00,
2013-05-20 05:08:00,42.3,33.9,29.71,ENE,59,1.0,2.0,72,0.00,,,0.00,Wunderground v.1.15,2013-05-20 11:08:00,
2013-05-20 05:10:00,42.2,33.8,29.71,ENE,60,1.0,1.0,72,0.00,,,0.00,Wunderground v.1.15,2013-05-20 11:10:00,
2013-05-20 05:11:00,42.2,33.8,29.71,ENE,74,1.0,2.0,72,0.00,,,0.00,Wunderground v.1.15,2013-05-20 11:11:00,
2013-05-20 05:13:00,42.1,33.7,29.71,ENE,67,1.0,4.0,72,0.00,,,0.00,Wunderground v.1.15,2013-05-20 11:13:00,
2013-05-20 05:15:00,42.1,34.1,29.71,ENE,65,2.0,4.0,73,0.00,,,0.00,Wunderground v.1.15,2013-05-20 11:15:00,
2013-05-20 05:16:00,42.1,34.1,29.71,ENE,74,2.0,4.0,73,0.00,,,0.00,Wunderground v.1.15,2013-05-20 11:16:00,
2013-05-20 05:22:00,41.7,34.0,29.71,ENE,74,3.0,4.0,74,0.00,,,0.00,Wunderground v.1.15,2013-05-20 11:22:00,
2013-05-20 05:23:00,41.6,34.3,29.71,ENE,73,2.0,4.0,75,0.00,,,0.00,Wunderground v.1.15,2013-05-20 11:23:00,
2013-05-20 05:25:00,41.5,34.2,29.71,NE,46,2.0,4.0,75,0.00,,,0.00,Wunderground v.1.15,2013-05-20 11:25:00,
2013-05-20 05:28:00,41.4,34.1,29.72,NE,34,2.0,4.0,75,0.00,,,0.00,Wunderground v.1.15,2013-05-20 11:28:00,
2013-05-20 05:29:00,41.3,34.0,29.72,NE,34,1.0,4.0,75,0.00,,,0.00,Wunderground v.1.15,2013-05-20 11:29:00,
2013-05-20 05:30:00,41.4,34.1,29.72,NE,34,1.0,1.0,75,0.00,,,0.00,Wunderground v.1.15,2013-05-20 11:30:00,
2013-05-20 05:34:00,41.3,34.3,29.72,ENE,72,1.0,2.0,76,0.00,,,0.00,Wunderground v.1.15,2013-05-20 11:34:00,
2013-05-20 05:36:00,41.3,34.3,29.72,ENE,58,1.0,2.0,76,0.00,,,0.00,Wunderground v.1.15,2013-05-20 11:36:00,
2013-05-20 05:38:00,41.2,34.2,29.72,NE,55,1.0,2.0,76,0.00,,,0.00,Wunderground v.1.15,2013-05-20 11:38:00,
2013-05-20 05:40:00,41.2,34.2,29.72,NE,53,1.0,2.0,76,0.00,,,0.00,Wunderground v.1.15,2013-05-20 11:40:00,
2013-05-20 05:42:00,41.2,34.2,29.72,NE,53,2.0,2.0,76,0.00,,,0.00,Wunderground v.1.15,2013-05-20 11:42:00,
2013-05-20 05:44:00,41.2,34.2,29.72,NE,43,2.0,2.0,76,0.00,,,0.00,Wunderground v.1.15,2013-05-20 11:44:00,
2013-05-20 05:45:00,41.1,34.1,29.72,NE,54,1.0,2.0,76,0.00,,,0.00,Wunderground v.1.15,2013-05-20 11:45:00,
2013-05-20 05:47:00,41.2,34.2,29.73,ENE,66,1.0,2.0,76,0.00,,,0.00,Wunderground v.1.15,2013-05-20 11:47:00,
2013-05-20 05:48:00,41.2,34.2,29.73,ENE,67,1.0,2.0,76,0.00,,,0.00,Wunderground v.1.15,2013-05-20 11:48:00,
2013-05-20 05:49:00,41.2,34.2,29.73,ENE,66,1.0,2.0,76,0.00,,,0.00,Wunderground v.1.15,2013-05-20 11:49:00,
2013-05-20 05:53:00,41.2,34.5,29.73,East,91,0.0,0.0,77,0.00,,,0.00,Wunderground v.1.15,2013-05-20 11:53:00,
2013-05-20 05:55:00,41.2,34.5,29.73,East,91,0.0,0.0,77,0.00,,,0.00,Wunderground v.1.15,2013-05-20 11:55:00,
2013-05-20 05:56:00,41.2,34.5,29.73,East,91,0.0,0.0,77,0.00,,,0.00,Wunderground v.1.15,2013-05-20 11:56:00,
2013-05-20 05:57:00,41.2,34.9,29.73,East,91,0.0,0.0,78,0.00,,,0.00,Wunderground v.1.15,2013-05-20 11:57:00,
2013-05-20 05:59:00,41.3,35.0,29.73,East,87,0.0,1.0,78,0.00,,,0.00,Wunderground v.1.15,2013-05-20 11:59:00,
2013-05-20 06:03:00,41.2,35.5,29.73,East,79,0.0,2.0,80,0.00,,,0.00,Wunderground v.1.15,2013-05-20 12:03:00,
2013-05-20 06:05:00,41.1,35.7,29.73,East,79,0.0,2.0,81,0.00,,,0.00,Wunderground v.1.15,2013-05-20 12:05:00,
2013-05-20 06:06:00,41.1,35.7,29.73,ENE,76,0.0,2.0,81,0.00,,,0.00,Wunderground v.1.15,2013-05-20 12:06:00,
2013-05-20 06:08:00,41.1,35.7,29.73,East,86,0.0,2.0,81,0.00,,,0.00,Wunderground v.1.15,2013-05-20 12:08:00,
2013-05-20 06:10:00,40.9,35.8,29.73,East,84,1.0,1.0,82,0.00,,,0.00,Wunderground v.1.15,2013-05-20 12:10:00,
2013-05-20 06:13:00,40.9,36.1,29.73,East,86,0.0,1.0,83,0.00,,,0.00,Wunderground v.1.15,2013-05-20 12:13:00,
2013-05-20 06:15:00,40.9,36.1,29.73,East,86,0.0,1.0,83,0.00,,,0.00,Wunderground v.1.15,2013-05-20 12:15:00,
2013-05-20 06:20:00,40.8,36.0,29.73,ESE,111,0.0,0.0,83,0.00,,,0.00,Wunderground v.1.15,2013-05-20 12:20:00,
2013-05-20 06:23:00,40.8,36.3,29.73,ESE,110,0.0,1.0,84,0.00,,,0.00,Wunderground v.1.15,2013-05-20 12:23:00,
2013-05-20 06:26:00,40.9,36.1,29.73,ESE,111,0.0,1.0,83,0.00,,,0.00,Wunderground v.1.15,2013-05-20 12:26:00,
2013-05-20 06:27:00,40.9,36.4,29.73,ESE,111,0.0,1.0,84,0.00,,,0.00,Wunderground v.1.15,2013-05-20 12:27:00,
2013-05-20 06:29:00,40.9,36.1,29.74,ESE,112,0.0,1.0,83,0.00,,,0.00,Wunderground v.1.15,2013-05-20 12:29:00,
2013-05-20 06:34:00,41.0,36.2,29.73,ESE,111,0.0,0.0,83,0.00,,,0.00,Wunderground v.1.15,2013-05-20 12:34:00,
2013-05-20 06:35:00,41.0,36.2,29.73,ESE,111,0.0,0.0,83,0.00,,,0.00,Wunderground v.1.15,2013-05-20 12:35:00,
2013-05-20 06:40:00,41.1,35.7,29.74,ENE,68,1.0,1.0,81,0.00,,,0.00,Wunderground v.1.15,2013-05-20 12:40:00,
2013-05-20 06:42:00,41.1,35.7,29.74,ENE,77,1.0,2.0,81,0.00,,,0.00,Wunderground v.1.15,2013-05-20 12:42:00,
2013-05-20 06:44:00,41.2,36.1,29.74,East,91,1.0,2.0,82,0.00,,,0.00,Wunderground v.1.15,2013-05-20 12:44:00,
2013-05-20 06:46:00,41.2,35.8,29.73,East,90,1.0,2.0,81,0.00,,,0.00,Wunderground v.1.15,2013-05-20 12:46:00,
2013-05-20 06:47:00,41.3,36.2,29.73,East,92,1.0,2.0,82,0.00,,,0.00,Wunderground v.1.15,2013-05-20 12:47:00,
2013-05-20 06:50:00,41.4,36.0,29.73,East,92,1.0,1.0,81,0.00,,,0.00,Wunderground v.1.15,2013-05-20 12:50:00,
2013-05-20 06:52:00,41.5,36.1,29.73,East,91,1.0,1.0,81,0.00,,,0.00,Wunderground v.1.15,2013-05-20 12:52:00,
2013-05-20 06:53:00,41.5,36.4,29.73,East,91,0.0,1.0,82,0.00,,,0.00,Wunderground v.1.15,2013-05-20 12:53:00,
2013-05-20 06:56:00,41.6,36.5,29.73,East,92,0.0,1.0,82,0.00,,,0.00,Wunderground v.1.15,2013-05-20 12:56:00,
2013-05-20 06:58:00,41.7,36.6,29.73,North,9,0.0,1.0,82,0.00,,,0.00,Wunderground v.1.15,2013-05-20 12:58:00,
2013-05-20 07:00:00,41.8,36.4,29.73,NNE,19,1.0,2.0,81,0.00,,,0.00,Wunderground v.1.15,2013-05-20 13:00:00,
2013-05-20 07:01:00,41.7,36.0,29.73,NNE,19,1.0,2.0,80,0.00,,,0.00,Wunderground v.1.15,2013-05-20 13:01:00,
2013-05-20 07:06:00,42.0,36.6,29.74,NNE,26,0.0,2.0,81,0.00,,,0.00,Wunderground v.1.15,2013-05-20 13:06:00,
2013-05-20 07:07:00,42.1,36.4,29.74,East,91,0.0,2.0,80,0.00,,,0.00,Wunderground v.1.15,2013-05-20 13:07:00,
2013-05-20 07:10:00,42.3,36.6,29.74,ESE,117,0.0,1.0,80,0.00,,,0.00,Wunderground v.1.15,2013-05-20 13:10:00,
2013-05-20 07:12:00,42.5,36.4,29.74,ESE,114,0.0,1.0,79,0.00,,,0.00,Wunderground v.1.15,2013-05-20 13:12:00,
2013-05-20 07:13:00,42.7,36.3,29.74,ESE,104,0.0,1.0,78,0.00,,,0.00,Wunderground v.1.15,2013-05-20 13:13:00,
2013-05-20 07:17:00,42.9,36.5,29.74,ENE,74,1.0,2.0,78,0.00,,,0.00,Wunderground v.1.15,2013-05-20 13:17:00,
2013-05-20 07:19:00,42.9,36.5,29.74,ENE,74,1.0,2.0,78,0.00,,,0.00,Wunderground v.1.15,2013-05-20 13:19:00,
2013-05-20 07:20:00,43.0,36.6,29.74,ENE,74,1.0,1.0,78,0.00,,,0.00,Wunderground v.1.15,2013-05-20 13:20:00,
2013-05-20 07:22:00,43.2,36.8,29.74,ENE,72,1.0,2.0,78,0.00,,,0.00,Wunderground v.1.15,2013-05-20 13:22:00,
2013-05-20 07:23:00,43.3,36.6,29.74,ENE,76,1.0,2.0,77,0.00,,,0.00,Wunderground v.1.15,2013-05-20 13:23:00,
2013-05-20 07:26:00,43.2,36.1,29.75,East,93,1.0,2.0,76,0.00,,,0.00,Wunderground v.1.15,2013-05-20 13:26:00,
2013-05-20 07:27:00,43.2,36.1,29.75,NE,55,1.0,2.0,76,0.00,,,0.00,Wunderground v.1.15,2013-05-20 13:27:00,
2013-05-20 07:28:00,43.2,36.1,29.74,ENE,57,1.0,2.0,76,0.00,,,0.00,Wunderground v.1.15,2013-05-20 13:28:00,
2013-05-20 07:29:00,43.3,36.6,29.75,ENE,58,1.0,2.0,77,0.00,,,0.00,Wunderground v.1.15,2013-05-20 13:29:00,
2013-05-20 07:30:00,43.3,36.6,29.74,NNE,22,1.0,2.0,77,0.00,,,0.00,Wunderground v.1.15,2013-05-20 13:30:00,
2013-05-20 07:33:00,43.3,35.2,29.74,West,263,1.0,2.0,73,0.00,,,0.00,Wunderground v.1.15,2013-05-20 13:33:00,
2013-05-20 07:35:00,43.3,35.2,29.74,West,260,1.0,2.0,73,0.00,,,0.00,Wunderground v.1.15,2013-05-20 13:35:00,
2013-05-20 07:38:00,43.2,35.5,29.73,SSW,212,1.0,2.0,74,0.00,,,0.00,Wunderground v.1.15,2013-05-20 13:38:00,
2013-05-20 07:40:00,43.5,35.4,29.73,SSW,195,1.0,1.0,73,0.00,,,0.00,Wunderground v.1.15,2013-05-20 13:40:00,
2013-05-20 07:42:00,43.8,39.3,29.73,SSW,211,1.0,3.0,84,0.00,,,0.00,Wunderground v.1.15,2013-05-20 13:42:00,
2013-05-20 07:44:00,43.8,36.7,29.73,SSW,207,1.0,3.0,76,0.00,,,0.00,Wunderground v.1.15,2013-05-20 13:44:00,
2013-05-20 07:45:00,43.8,36.7,29.73,SSE,167,1.0,3.0,76,0.00,,,0.00,Wunderground v.1.15,2013-05-20 13:45:00,
2013-05-20 07:46:00,43.8,36.7,29.73,SSE,165,2.0,3.0,76,0.00,,,0.00,Wunderground v.1.15,2013-05-20 13:46:00,
2013-05-20 07:47:00,43.8,36.7,29.73,SSW,204,2.0,4.0,76,0.00,,,0.00,Wunderground v.1.15,2013-05-20 13:47:00,
2013-05-20 07:49:00,43.8,36.4,29.73,SSE,155,2.0,4.0,75,0.00,,,0.00,Wunderground v.1.15,2013-05-20 13:49:00,
2013-05-20 07:51:00,43.7,36.0,29.73,SE,139,3.0,4.0,74,0.00,,,0.00,Wunderground v.1.15,2013-05-20 13:51:00,
2013-05-20 07:53:00,43.7,35.6,29.73,SW,229,3.0,4.0,73,0.00,,,0.00,Wunderground v.1.15,2013-05-20 13:53:00,
2013-05-20 07:55:00,43.8,36.0,29.73,WNW,287,2.0,4.0,74,0.00,,,0.00,Wunderground v.1.15,2013-05-20 13:55:00,
2013-05-20 07:59:00,43.9,35.5,29.73,WNW,284,3.0,5.0,72,0.00,,,0.00,Wunderground v.1.15,2013-05-20 13:59:00,
2013-05-20 08:00:00,43.9,35.5,29.73,WNW,301,2.0,2.0,72,0.00,,,0.00,Wunderground v.1.15,2013-05-20 14:00:00,
2013-05-20 08:01:00,43.9,35.5,29.73,West,259,2.0,5.0,72,0.00,,,0.00,Wunderground v.1.15,2013-05-20 14:01:00,
2013-05-20 08:04:00,44.1,36.0,29.73,SSW,205,3.0,5.0,73,0.00,,,0.00,Wunderground v.1.15,2013-05-20 14:04:00,
2013-05-20 08:05:00,44.1,35.6,29.73,SW,218,3.0,5.0,72,0.00,,,0.00,Wunderground v.1.15,2013-05-20 14:05:00,
2013-05-20 08:09:00,44.1,35.3,29.73,WSW,245,3.0,5.0,71,0.00,,,0.00,Wunderground v.1.15,2013-05-20 14:09:00,
2013-05-20 08:12:00,44.2,35.4,29.73,West,261,3.0,3.0,71,0.00,,,0.00,Wunderground v.1.15,2013-05-20 14:12:00,
2013-05-20 08:13:00,44.3,35.5,29.73,SW,224,3.0,3.0,71,0.00,,,0.00,Wunderground v.1.15,2013-05-20 14:13:00,
2013-05-20 08:14:00,44.4,35.6,29.73,West,271,3.0,5.0,71,0.00,,,0.00,Wunderground v.1.15,2013-05-20 14:14:00,
2013-05-20 08:16:00,44.4,34.9,29.73,SSW,204,3.0,5.0,69,0.00,,,0.00,Wunderground v.1.15,2013-05-20 14:16:00,
2013-05-20 08:19:00,44.5,35.0,29.74,SW,224,3.0,5.0,69,0.00,,,0.00,Wunderground v.1.15,2013-05-20 14:19:00,
2013-05-20 08:22:00,44.7,34.8,29.73,WNW,282,3.0,3.0,68,0.00,,,0.00,Wunderground v.1.15,2013-05-20 14:22:00,
2013-05-20 08:23:00,44.8,34.9,29.73,SW,233,3.0,3.0,68,0.00,,,0.00,Wunderground v.1.15,2013-05-20 14:23:00,
2013-05-20 08:24:00,44.8,34.9,29.73,SW,225,3.0,3.0,68,0.00,,,0.00,Wunderground v.1.15,2013-05-20 14:24:00,
2013-05-20 08:26:00,45.0,35.4,29.74,WSW,239,2.0,4.0,69,0.00,,,0.00,Wunderground v.1.15,2013-05-20 14:26:00,
2013-05-20 08:28:00,45.0,35.1,29.74,SW,221,2.0,4.0,68,0.00,,,0.00,Wunderground v.1.15,2013-05-20 14:28:00,
2013-05-20 08:33:00,45.4,35.5,29.74,SW,218,2.0,3.0,68,0.00,,,0.00,Wunderground v.1.15,2013-05-20 14:33:00,
2013-05-20 08:35:00,45.6,35.3,29.74,South,188,2.0,3.0,67,0.00,,,0.00,Wunderground v.1.15,2013-05-20 14:35:00,
2013-05-20 08:37:00,45.7,35.7,29.73,WSW,255,2.0,3.0,68,0.00,,,0.00,Wunderground v.1.15,2013-05-20 14:37:00,
2013-05-20 08:38:00,45.8,35.5,29.73,SW,222,2.0,3.0,67,0.00,,,0.00,Wunderground v.1.15,2013-05-20 14:38:00,
2013-05-20 08:41:00,46.0,35.3,29.73,SSW,194,2.0,5.0,66,0.00,,,0.00,Wunderground v.1.15,2013-05-20 14:41:00,
2013-05-20 08:43:00,46.3,34.4,29.73,WSW,243,3.0,5.0,63,0.00,,,0.00,Wunderground v.1.15,2013-05-20 14:43:00,
2013-05-20 08:45:00,46.6,33.9,29.73,West,277,4.0,6.0,61,0.00,,,0.00,Wunderground v.1.15,2013-05-20 14:45:00,
2013-05-20 08:47:00,47.0,31.7,29.73,West,280,5.0,11.0,55,0.00,,,0.00,Wunderground v.1.15,2013-05-20 14:47:00,
2013-05-20 08:48:00,47.1,30.8,29.73,West,281,6.0,11.0,53,0.00,,,0.00,Wunderground v.1.15,2013-05-20 14:48:00,
2013-05-20 08:50:00,47.3,30.1,29.73,West,266,6.0,6.0,51,0.00,,,0.00,Wunderground v.1.15,2013-05-20 14:50:00,
2013-05-20 08:51:00,47.5,30.7,29.73,West,263,7.0,7.0,52,0.00,,,0.00,Wunderground v.1.15,2013-05-20 14:51:00,
2013-05-20 08:52:00,47.6,30.3,29.73,West,280,7.0,8.0,51,0.00,,,0.00,Wunderground v.1.15,2013-05-20 14:52:00,
2013-05-20 08:54:00,47.7,30.0,29.73,WNW,295,8.0,8.0,50,0.00,,,0.00,Wunderground v.1.15,2013-05-20 14:54:00,
2013-05-20 08:56:00,47.8,30.0,29.73,South,187,8.0,8.0,50,0.00,,,0.00,Wunderground v.1.15,2013-05-20 14:56:00,
2013-05-20 09:01:00,48.1,29.8,29.73,SW,224,8.0,8.0,49,0.00,,,0.00,Wunderground v.1.15,2013-05-20 15:01:00,
2013-05-20 09:02:00,48.2,30.4,29.72,WSW,239,7.0,8.0,50,0.00,,,0.00,Wunderground v.1.15,2013-05-20 15:02:00,
2013-05-20 09:03:00,48.3,30.0,29.72,WSW,256,7.0,10.0,49,0.00,,,0.00,Wunderground v.1.15,2013-05-20 15:03:00,
2013-05-20 09:08:00,48.5,29.7,29.72,SW,226,7.0,11.0,48,0.00,,,0.00,Wunderground v.1.15,2013-05-20 15:08:00,
2013-05-20 09:10:00,48.8,30.5,29.73,WSW,252,7.0,7.0,49,0.00,,,0.00,Wunderground v.1.15,2013-05-20 15:10:00,
2013-05-20 09:12:00,49.0,29.6,29.73,SW,226,7.0,8.0,47,0.00,,,0.00,Wunderground v.1.15,2013-05-20 15:12:00,
2013-05-20 09:14:00,49.2,29.8,29.73,WNW,284,7.0,12.0,47,0.00,,,0.00,Wunderground v.1.15,2013-05-20 15:14:00,
2013-05-20 09:16:00,49.3,29.9,29.73,WNW,284,7.0,12.0,47,0.00,,,0.00,Wunderground v.1.15,2013-05-20 15:16:00,
2013-05-20 09:19:00,49.3,29.4,29.73,West,280,8.0,12.0,46,0.00,,,0.00,Wunderground v.1.15,2013-05-20 15:19:00,
2013-05-20 09:22:00,49.3,29.9,29.73,West,262,9.0,13.0,47,0.00,,,0.00,Wunderground v.1.15,2013-05-20 15:22:00,
2013-05-20 09:24:00,49.5,30.1,29.73,WNW,299,9.0,13.0,47,0.00,,,0.00,Wunderground v.1.15,2013-05-20 15:24:00,
2013-05-20 09:26:00,49.4,28.9,29.73,WSW,252,10.0,24.0,45,0.00,,,0.00,Wunderground v.1.15,2013-05-20 15:26:00,
2013-05-20 09:27:00,49.4,29.5,29.73,WSW,255,10.0,24.0,46,0.00,,,0.00,Wunderground v.1.15,2013-05-20 15:27:00,
2013-05-20 09:29:00,49.5,29.6,29.73,WSW,252,10.0,24.0,46,0.00,,,0.00,Wunderground v.1.15,2013-05-20 15:29:00,
2013-05-20 09:30:00,49.5,29.6,29.73,West,280,10.0,10.0,46,0.00,,,0.00,Wunderground v.1.15,2013-05-20 15:30:00,
2013-05-20 09:32:00,49.6,29.6,29.73,WSW,242,10.0,10.0,46,0.00,,,0.00,Wunderground v.1.15,2013-05-20 15:32:00,
2013-05-20 09:35:00,49.7,29.7,29.73,WSW,256,11.0,17.0,46,0.00,,,0.00,Wunderground v.1.15,2013-05-20 15:35:00,
2013-05-20 09:38:00,49.7,29.7,29.73,West,277,11.0,17.0,46,0.00,,,0.00,Wunderground v.1.15,2013-05-20 15:38:00,
2013-05-20 09:40:00,49.8,29.3,29.73,WSW,242,10.0,10.0,45,0.00,,,0.00,Wunderground v.1.15,2013-05-20 15:40:00,
2013-05-20 09:42:00,49.9,29.9,29.73,West,280,10.0,10.0,46,0.00,,,0.00,Wunderground v.1.15,2013-05-20 15:42:00,
2013-05-20 09:43:00,50.1,30.1,29.73,SW,233,9.0,10.0,46,0.00,,,0.00,Wunderground v.1.15,2013-05-20 15:43:00,
2013-05-20 09:45:00,50.4,29.3,29.73,West,280,9.0,12.0,44,0.00,,,0.00,Wunderground v.1.15,2013-05-20 15:45:00,
2013-05-20 09:47:00,50.3,29.7,29.73,WSW,256,9.0,12.0,45,0.00,,,0.00,Wunderground v.1.15,2013-05-20 15:47:00,
2013-05-20 09:48:00,50.3,29.7,29.73,WSW,246,9.0,16.0,45,0.00,,,0.00,Wunderground v.1.15,2013-05-20 15:48:00,
2013-05-20 09:52:00,50.0,28.9,29.73,WNW,287,10.0,15.0,44,0.00,,,0.00,Wunderground v.1.15,2013-05-20 15:52:00,
2013-05-20 09:53:00,50.0,28.9,29.73,West,269,10.0,15.0,44,0.00,,,0.00,Wunderground v.1.15,2013-05-20 15:53:00,
2013-05-20 09:56:00,49.8,28.7,29.73,West,279,11.0,17.0,44,0.00,,,0.00,Wunderground v.1.15,2013-05-20 15:56:00,
2013-05-20 09:59:00,49.9,29.9,29.73,SW,215,10.0,17.0,46,0.00,,,0.00,Wunderground v.1.15,2013-05-20 15:59:00,
2013-05-20 10:01:00,50.0,29.5,29.73,SSW,212,10.0,10.0,45,0.00,,,0.00,Wunderground v.1.15,2013-05-20 16:01:00,
2013-05-20 10:02:00,50.1,29.6,29.73,SW,221,9.0,10.0,45,0.00,,,0.00,Wunderground v.1.15,2013-05-20 16:02:00,
2013-05-20 10:04:00,50.3,29.7,29.73,WSW,239,9.0,10.0,45,0.00,,,0.00,Wunderground v.1.15,2013-05-20 16:04:00,
2013-05-20 10:05:00,50.4,30.4,29.73,SW,232,8.0,10.0,46,0.00,,,0.00,Wunderground v.1.15,2013-05-20 16:05:00,
2013-05-20 10:07:00,50.6,29.5,29.73,WNW,293,7.0,10.0,44,0.00,,,0.00,Wunderground v.1.15,2013-05-20 16:07:00,
2013-05-20 10:08:00,50.5,28.8,29.73,West,277,7.0,14.0,43,0.00,,,0.00,Wunderground v.1.15,2013-05-20 16:08:00,
2013-05-20 10:11:00,50.5,28.8,29.73,West,259,7.0,12.0,43,0.00,,,0.00,Wunderground v.1.15,2013-05-20 16:11:00,
2013-05-20 10:15:00,50.8,29.1,29.73,WNW,285,7.0,12.0,43,0.00,,,0.00,Wunderground v.1.15,2013-05-20 16:15:00,
2013-05-20 10:16:00,50.8,28.5,29.73,SW,226,7.0,12.0,42,0.00,,,0.00,Wunderground v.1.15,2013-05-20 16:16:00,
2013-05-20 10:17:00,50.8,29.1,29.73,SW,226,7.0,12.0,43,0.00,,,0.00,Wunderground v.1.15,2013-05-20 16:17:00,
2013-05-20 10:19:00,50.8,29.1,29.73,SW,218,7.0,12.0,43,0.00,,,0.00,Wunderground v.1.15,2013-05-20 16:19:00,
2013-05-20 10:22:00,50.5,28.2,29.73,WSW,245,7.0,11.0,42,0.00,,,0.00,Wunderground v.1.15,2013-05-20 16:22:00,
2013-05-20 10:23:00,50.4,28.1,29.73,West,261,7.0,11.0,42,0.00,,,0.00,Wunderground v.1.15,2013-05-20 16:23:00,
2013-05-20 10:25:00,50.3,28.6,29.73,SSW,212,7.0,11.0,43,0.00,,,0.00,Wunderground v.1.15,2013-05-20 16:25:00,
2013-05-20 10:28:00,50.8,29.1,29.73,WSW,249,7.0,11.0,43,0.00,,,0.00,Wunderground v.1.15,2013-05-20 16:28:00,
2013-05-20 10:29:00,50.9,29.2,29.73,West,260,7.0,11.0,43,0.00,,,0.00,Wunderground v.1.15,2013-05-20 16:29:00,
2013-05-20 10:30:00,50.9,28.6,29.73,West,262,7.0,9.0,42,0.00,,,0.00,Wunderground v.1.15,2013-05-20 16:30:00,
2013-05-20 10:34:00,51.2,28.9,29.73,West,272,7.0,11.0,42,0.00,,,0.00,Wunderground v.1.15,2013-05-20 16:34:00,
2013-05-20 10:35:00,51.1,27.6,29.73,WSW,241,7.0,11.0,40,0.00,,,0.00,Wunderground v.1.15,2013-05-20 16:35:00,
2013-05-20 10:36:00,51.0,28.1,29.73,West,272,7.0,11.0,41,0.00,,,0.00,Wunderground v.1.15,2013-05-20 16:36:00,
2013-05-20 10:38:00,51.0,28.7,29.73,West,281,7.0,11.0,42,0.00,,,0.00,Wunderground v.1.15,2013-05-20 16:38:00,
2013-05-20 10:40:00,51.2,28.9,29.73,West,259,7.0,7.0,42,0.00,,,0.00,Wunderground v.1.15,2013-05-20 16:40:00,
2013-05-20 10:41:00,51.3,29.0,29.73,SE,128,7.0,9.0,42,0.00,,,0.00,Wunderground v.1.15,2013-05-20 16:41:00,
2013-05-20 10:42:00,51.3,28.4,29.73,SW,219,8.0,10.0,41,0.00,,,0.00,Wunderground v.1.15,2013-05-20 16:42:00,
2013-05-20 10:43:00,51.3,28.4,29.73,SW,222,8.0,10.0,41,0.00,,,0.00,Wunderground v.1.15,2013-05-20 16:43:00,
2013-05-20 10:46:00,51.5,29.1,29.73,WSW,257,8.0,13.0,42,0.00,,,0.00,Wunderground v.1.15,2013-05-20 16:46:00,
2013-05-20 10:48:00,51.7,28.7,29.73,WSW,257,9.0,13.0,41,0.00,,,0.00,Wunderground v.1.15,2013-05-20 16:48:00,
2013-05-20 10:51:00,51.4,28.5,29.73,West,277,9.0,17.0,41,0.00,,,0.00,Wunderground v.1.15,2013-05-20 16:51:00,
2013-05-20 10:52:00,51.3,29.0,29.73,WSW,246,10.0,17.0,42,0.00,,,0.00,Wunderground v.1.15,2013-05-20 16:52:00,
2013-05-20 10:54:00,51.5,28.6,29.73,SW,229,10.0,17.0,41,0.00,,,0.00,Wunderground v.1.15,2013-05-20 16:54:00,
2013-05-20 10:56:00,51.8,29.4,29.73,SW,220,9.0,17.0,42,0.00,,,0.00,Wunderground v.1.15,2013-05-20 16:56:00,
2013-05-20 11:01:00,51.7,29.3,29.73,SW,224,8.0,9.0,42,0.00,,,0.00,Wunderground v.1.15,2013-05-20 17:01:00,
2013-05-20 11:02:00,51.8,28.8,29.73,West,260,8.0,11.0,41,0.00,,,0.00,Wunderground v.1.15,2013-05-20 17:02:00,
2013-05-20 11:04:00,51.7,29.3,29.73,SSW,205,8.0,11.0,42,0.00,,,0.00,Wunderground v.1.15,2013-05-20 17:04:00,
2013-05-20 11:06:00,51.8,28.8,29.73,WSW,258,9.0,12.0,41,0.00,,,0.00,Wunderground v.1.15,2013-05-20 17:06:00,
2013-05-20 11:08:00,51.8,28.8,29.73,SW,217,9.0,12.0,41,0.00,,,0.00,Wunderground v.1.15,2013-05-20 17:08:00,
2013-05-20 11:11:00,51.7,28.7,29.73,West,262,9.0,11.0,41,0.00,,,0.00,Wunderground v.1.15,2013-05-20 17:11:00,
2013-05-20 11:14:00,51.7,29.3,29.73,West,269,9.0,15.0,42,0.00,,,0.00,Wunderground v.1.15,2013-05-20 17:14:00,
2013-05-20 11:15:00,51.7,28.7,29.73,WSW,255,9.0,16.0,41,0.00,,,0.00,Wunderground v.1.15,2013-05-20 17:15:00,
2013-05-20 11:16:00,51.6,28.6,29.73,SSW,193,10.0,16.0,41,0.00,,,0.00,Wunderground v.1.15,2013-05-20 17:16:00,
2013-05-20 11:18:00,51.6,29.2,29.73,WNW,293,10.0,16.0,42,0.00,,,0.00,Wunderground v.1.15,2013-05-20 17:18:00,
2013-05-20 11:21:00,51.6,28.6,29.73,West,276,10.0,14.0,41,0.00,,,0.00,Wunderground v.1.15,2013-05-20 17:21:00,
2013-05-20 11:22:00,51.5,28.6,29.73,West,259,10.0,14.0,41,0.00,,,0.00,Wunderground v.1.15,2013-05-20 17:22:00,
2013-05-20 11:24:00,51.5,29.1,29.73,WSW,239,10.0,14.0,42,0.00,,,0.00,Wunderground v.1.15,2013-05-20 17:24:00,
2013-05-20 11:27:00,51.6,28.6,29.73,West,267,10.0,14.0,41,0.00,,,0.00,Wunderground v.1.15,2013-05-20 17:27:00,
2013-05-20 11:29:00,51.5,28.6,29.73,West,280,11.0,16.0,41,0.00,,,0.00,Wunderground v.1.15,2013-05-20 17:29:00,
2013-05-20 11:30:00,51.3,28.4,29.73,WSW,252,11.0,11.0,41,0.00,,,0.00,Wunderground v.1.15,2013-05-20 17:30:00,
2013-05-20 11:32:00,51.2,28.9,29.73,West,279,12.0,17.0,42,0.00,,,0.00,Wunderground v.1.15,2013-05-20 17:32:00,
2013-05-20 11:33:00,51.2,28.9,29.73,SW,236,12.0,17.0,42,0.00,,,0.00,Wunderground v.1.15,2013-05-20 17:33:00,
2013-05-20 11:36:00,51.6,29.2,29.73,WSW,239,11.0,17.0,42,0.00,,,0.00,Wunderground v.1.15,2013-05-20 17:36:00,
2013-05-20 11:37:00,51.7,28.7,29.73,WNW,283,11.0,17.0,41,0.00,,,0.00,Wunderground v.1.15,2013-05-20 17:37:00,
2013-05-20 11:39:00,51.6,28.6,29.73,WNW,298,10.0,17.0,41,0.00,,,0.00,Wunderground v.1.15,2013-05-20 17:39:00,
2013-05-20 11:41:00,51.6,28.6,29.73,West,263,9.0,9.0,41,0.00,,,0.00,Wunderground v.1.15,2013-05-20 17:41:00,
2013-05-20 11:43:00,51.7,28.7,29.73,WSW,239,9.0,9.0,41,0.00,,,0.00,Wunderground v.1.15,2013-05-20 17:43:00,
2013-05-20 11:44:00,51.8,28.8,29.73,West,271,8.0,9.0,41,0.00,,,0.00,Wunderground v.1.15,2013-05-20 17:44:00,
2013-05-20 11:45:00,51.9,29.5,29.73,West,262,8.0,11.0,42,0.00,,,0.00,Wunderground v.1.15,2013-05-20 17:45:00,
2013-05-20 11:46:00,51.9,28.9,29.73,West,267,9.0,13.0,41,0.00,,,0.00,Wunderground v.1.15,2013-05-20 17:46:00,
2013-05-20 11:48:00,52.0,29.0,29.74,WSW,258,9.0,13.0,41,0.00,,,0.00,Wunderground v.1.15,2013-05-20 17:48:00,
2013-05-20 11:51:00,51.9,28.3,29.74,WSW,256,9.0,12.0,40,0.00,,,0.00,Wunderground v.1.15,2013-05-20 17:51:00,
2013-05-20 11:53:00,52.1,29.1,29.74,WNW,285,10.0,12.0,41,0.00,,,0.00,Wunderground v.1.15,2013-05-20 17:53:00,
2013-05-20 11:54:00,52.1,29.1,29.74,WNW,290,10.0,12.0,41,0.00,,,0.00,Wunderground v.1.15,2013-05-20 17:54:00,
2013-05-20 11:55:00,52.1,29.1,29.74,West,278,10.0,12.0,41,0.00,,,0.00,Wunderground v.1.15,2013-05-20 17:55:00,
2013-05-20 11:57:00,52.1,29.1,29.74,West,278,9.0,14.0,41,0.00,,,0.00,Wunderground v.1.15,2013-05-20 17:57:00,
2013-05-20 12:01:00,52.3,29.3,29.74,West,262,9.0,11.0,41,0.00,,,0.00,Wunderground v.1.15,2013-05-20 18:01:00,
2013-05-20 12:02:00,52.4,29.4,29.74,WSW,257,9.0,11.0,41,0.00,,,0.00,Wunderground v.1.15,2013-05-20 18:02:00,
2013-05-20 12:04:00,52.4,28.8,29.74,WSW,257,9.0,12.0,40,0.00,,,0.00,Wunderground v.1.15,2013-05-20 18:04:00,
2013-05-20 12:07:00,52.4,29.4,29.74,West,279,9.0,13.0,41,0.00,,,0.00,Wunderground v.1.15,2013-05-20 18:07:00,
2013-05-20 12:10:00,52.2,28.6,29.74,SW,236,9.0,15.0,40,0.00,,,0.00,Wunderground v.1.15,2013-05-20 18:10:00,
2013-05-20 12:11:00,52.1,28.5,29.74,West,259,9.0,15.0,40,0.00,,,0.00,Wunderground v.1.15,2013-05-20 18:11:00,
2013-05-20 12:12:00,52.1,28.5,29.74,WSW,255,9.0,15.0,40,0.00,,,0.00,Wunderground v.1.15,2013-05-20 18:12:00,
2013-05-20 12:13:00,52.2,29.2,29.73,WNW,293,9.0,15.0,41,0.00,,,0.00,Wunderground v.1.15,2013-05-20 18:13:00,
2013-05-20 12:16:00,52.6,28.9,29.74,West,276,9.0,15.0,40,0.00,,,0.00,Wunderground v.1.15,2013-05-20 18:16:00,
2013-05-20 12:18:00,52.8,29.1,29.74,SW,217,9.0,15.0,40,0.00,,,0.00,Wunderground v.1.15,2013-05-20 18:18:00,
2013-05-20 12:19:00,52.9,29.2,29.74,SW,224,9.0,15.0,40,0.00,,,0.00,Wunderground v.1.15,2013-05-20 18:19:00,
2013-05-20 12:20:00,52.9,29.2,29.74,WSW,240,8.0,10.0,40,0.00,,,0.00,Wunderground v.1.15,2013-05-20 18:20:00,
2013-05-20 12:22:00,52.9,28.6,29.74,SW,232,9.0,10.0,39,0.00,,,0.00,Wunderground v.1.15,2013-05-20 18:22:00,
2013-05-20 12:25:00,52.9,29.8,29.74,West,269,9.0,12.0,41,0.00,,,0.00,Wunderground v.1.15,2013-05-20 18:25:00,
2013-05-20 12:26:00,52.8,29.1,29.74,WSW,257,9.0,12.0,40,0.00,,,0.00,Wunderground v.1.15,2013-05-20 18:26:00,
2013-05-20 12:27:00,52.8,29.7,29.74,WNW,287,9.0,12.0,41,0.00,,,0.00,Wunderground v.1.15,2013-05-20 18:27:00,
2013-05-20 12:28:00,52.6,28.9,29.74,WSW,242,10.0,12.0,40,0.00,,,0.00,Wunderground v.1.15,2013-05-20 18:28:00,
2013-05-20 12:31:00,52.1,29.7,29.74,WNW,291,11.0,11.0,42,0.00,,,0.00,Wunderground v.1.15,2013-05-20 18:31:00,
2013-05-20 12:32:00,52.2,29.8,29.74,West,267,11.0,18.0,42,0.00,,,0.00,Wunderground v.1.15,2013-05-20 18:32:00,
2013-05-20 12:33:00,52.2,29.8,29.74,West,271,10.0,18.0,42,0.00,,,0.00,Wunderground v.1.15,2013-05-20 18:33:00,
2013-05-20 12:35:00,52.0,29.6,29.74,SSW,210,11.0,18.0,42,0.00,,,0.00,Wunderground v.1.15,2013-05-20 18:35:00,
2013-05-20 12:36:00,52.0,29.6,29.74,SW,218,11.0,18.0,42,0.00,,,0.00,Wunderground v.1.15,2013-05-20 18:36:00,
2013-05-20 12:37:00,52.1,30.3,29.74,SW,235,10.0,18.0,43,0.00,,,0.00,Wunderground v.1.15,2013-05-20 18:37:00,
2013-05-20 12:42:00,52.0,29.6,29.74,West,274,10.0,17.0,42,0.00,,,0.00,Wunderground v.1.15,2013-05-20 18:42:00,
2013-05-20 12:43:00,52.2,29.8,29.74,WSW,239,10.0,17.0,42,0.00,,,0.00,Wunderground v.1.15,2013-05-20 18:43:00,
2013-05-20 12:48:00,52.8,29.1,29.74,WNW,291,9.0,17.0,40,0.00,,,0.00,Wunderground v.1.15,2013-05-20 18:48:00,
2013-05-20 12:49:00,52.9,30.4,29.74,SW,226,9.0,17.0,42,0.00,,,0.00,Wunderground v.1.15,2013-05-20 18:49:00,
2013-05-20 12:50:00,52.9,28.6,29.74,West,263,9.0,13.0,39,0.00,,,0.00,Wunderground v.1.15,2013-05-20 18:50:00,
2013-05-20 12:52:00,53.1,28.8,29.74,West,262,8.0,15.0,39,0.00,,,0.00,Wunderground v.1.15,2013-05-20 18:52:00,
2013-05-20 12:54:00,52.9,28.6,29.74,West,277,8.0,15.0,39,0.00,,,0.00,Wunderground v.1.15,2013-05-20 18:54:00,
2013-05-20 12:56:00,52.6,28.3,29.74,NW,305,8.0,15.0,39,0.00,,,0.00,Wunderground v.1.15,2013-05-20 18:56:00,
2013-05-20 12:58:00,52.6,29.5,29.73,WSW,246,8.0,15.0,41,0.00,,,0.00,Wunderground v.1.15,2013-05-20 18:58:00,
2013-05-20 12:59:00,52.7,29.0,29.73,WNW,283,8.0,15.0,40,0.00,,,0.00,Wunderground v.1.15,2013-05-20 18:59:00,
2013-05-20 13:01:00,52.7,28.4,29.74,West,262,8.0,8.0,39,0.00,,,0.00,Wunderground v.1.15,2013-05-20 19:01:00,
2013-05-20 13:02:00,52.9,29.2,29.73,West,273,8.0,9.0,40,0.00,,,0.00,Wunderground v.1.15,2013-05-20 19:02:00,
2013-05-20 13:04:00,53.3,30.2,29.74,West,260,8.0,9.0,41,0.00,,,0.00,Wunderground v.1.15,2013-05-20 19:04:00,
2013-05-20 13:05:00,53.4,30.3,29.73,SW,224,8.0,9.0,41,0.00,,,0.00,Wunderground v.1.15,2013-05-20 19:05:00,
2013-05-20 13:06:00,53.4,29.7,29.73,West,263,8.0,9.0,40,0.00,,,0.00,Wunderground v.1.15,2013-05-20 19:06:00,
2013-05-20 13:07:00,53.4,29.0,29.73,WSW,246,9.0,18.0,39,0.00,,,0.00,Wunderground v.1.15,2013-05-20 19:07:00,
2013-05-20 13:09:00,53.4,29.0,29.73,WNW,285,10.0,10.0,39,0.00,,,0.00,Wunderground v.1.15,2013-05-20 19:09:00,
2013-05-20 13:15:00,54.2,29.8,29.73,SW,226,10.0,17.0,39,0.00,,,0.00,Wunderground v.1.15,2013-05-20 19:15:00,
2013-05-20 13:16:00,54.3,29.8,29.73,WSW,257,10.0,17.0,39,0.00,,,0.00,Wunderground v.1.15,2013-05-20 19:16:00,
2013-05-20 13:17:00,54.4,29.3,29.73,West,269,10.0,17.0,38,0.00,,,0.00,Wunderground v.1.15,2013-05-20 19:17:00,
2013-05-20 13:19:00,54.1,29.0,29.73,West,265,10.0,17.0,38,0.00,,,0.00,Wunderground v.1.15,2013-05-20 19:19:00,
2013-05-20 13:21:00,53.9,28.8,29.73,WSW,252,10.0,10.0,38,0.00,,,0.00,Wunderground v.1.15,2013-05-20 19:21:00,
2013-05-20 13:22:00,54.1,29.7,29.73,West,275,10.0,10.0,39,0.00,,,0.00,Wunderground v.1.15,2013-05-20 19:22:00,
2013-05-20 13:23:00,54.3,29.8,29.74,WSW,238,10.0,14.0,39,0.00,,,0.00,Wunderground v.1.15,2013-05-20 19:23:00,
2013-05-20 13:25:00,54.2,29.1,29.73,SW,233,10.0,14.0,38,0.00,,,0.00,Wunderground v.1.15,2013-05-20 19:25:00,
2013-05-20 13:27:00,54.3,29.2,29.74,SW,231,10.0,14.0,38,0.00,,,0.00,Wunderground v.1.15,2013-05-20 19:27:00,
2013-05-20 13:28:00,54.3,29.2,29.73,SSW,212,10.0,14.0,38,0.00,,,0.00,Wunderground v.1.15,2013-05-20 19:28:00,
2013-05-20 13:29:00,54.3,29.8,29.73,West,263,9.0,9.0,39,0.00,,,0.00,Wunderground v.1.15,2013-05-20 19:29:00,
2013-05-20 13:32:00,54.3,29.8,29.73,West,264,9.0,12.0,39,0.00,,,0.00,Wunderground v.1.15,2013-05-20 19:32:00,
2013-05-20 13:34:00,54.1,29.7,29.74,West,281,8.0,12.0,39,0.00,,,0.00,Wunderground v.1.15,2013-05-20 19:34:00,
2013-05-20 13:37:00,53.8,30.0,29.74,WSW,245,8.0,12.0,40,0.00,,,0.00,Wunderground v.1.15,2013-05-20 19:37:00,
2013-05-20 13:38:00,53.9,30.7,29.74,West,277,9.0,12.0,41,0.00,,,0.00,Wunderground v.1.15,2013-05-20 19:38:00,
2013-05-20 13:40:00,53.6,29.2,29.74,West,263,10.0,10.0,39,0.00,,,0.00,Wunderground v.1.15,2013-05-20 19:40:00,
2013-05-20 13:41:00,53.3,29.6,29.74,SW,218,9.0,10.0,40,0.00,,,0.00,Wunderground v.1.15,2013-05-20 19:41:00,
2013-05-20 13:43:00,53.4,30.3,29.74,WSW,246,9.0,11.0,41,0.00,,,0.00,Wunderground v.1.15,2013-05-20 19:43:00,
2013-05-20 13:46:00,53.4,30.3,29.74,WSW,256,10.0,11.0,41,0.00,,,0.00,Wunderground v.1.15,2013-05-20 19:46:00,
2013-05-20 13:47:00,53.5,30.4,29.74,West,278,10.0,11.0,41,0.00,,,0.00,Wunderground v.1.15,2013-05-20 19:47:00,
2013-05-20 13:49:00,53.7,30.5,29.74,WNW,287,10.0,11.0,41,0.00,,,0.00,Wunderground v.1.15,2013-05-20 19:49:00,
2013-05-20 13:50:00,53.7,31.1,29.74,SSW,200,10.0,10.0,42,0.00,,,0.00,Wunderground v.1.15,2013-05-20 19:50:00,
2013-05-20 13:51:00,53.7,30.5,29.74,WNW,297,9.0,12.0,41,0.00,,,0.00,Wunderground v.1.15,2013-05-20 19:51:00,
2013-05-20 13:52:00,53.6,30.4,29.74,West,260,10.0,12.0,41,0.00,,,0.00,Wunderground v.1.15,2013-05-20 19:52:00,
2013-05-20 13:53:00,53.4,30.3,29.74,West,259,10.0,12.0,41,0.00,,,0.00,Wunderground v.1.15,2013-05-20 19:53:00,
2013-05-20 13:55:00,53.2,30.1,29.74,West,271,10.0,12.0,41,0.00,,,0.00,Wunderground v.1.15,2013-05-20 19:55:00,
2013-05-20 13:59:00,53.3,30.2,29.74,West,269,10.0,18.0,41,0.00,,,0.00,Wunderground v.1.15,2013-05-20 19:59:00,
2013-05-20 14:00:00,53.2,30.1,29.74,WSW,246,10.0,15.0,41,0.00,,,0.00,Wunderground v.1.15,2013-05-20 20:00:00,
2013-05-20 14:01:00,53.0,29.9,29.74,SSW,210,10.0,15.0,41,0.00,,,0.00,Wunderground v.1.15,2013-05-20 20:01:00,
2013-05-20 14:04:00,52.7,29.6,29.74,WSW,252,11.0,15.0,41,0.00,,,0.00,Wunderground v.1.15,2013-05-20 20:04:00,
2013-05-20 14:06:00,52.3,29.9,29.75,WNW,285,12.0,18.0,42,0.00,,,0.00,Wunderground v.1.15,2013-05-20 20:06:00,
2013-05-20 14:07:00,52.2,30.4,29.75,West,277,12.0,18.0,43,0.00,,,0.00,Wunderground v.1.15,2013-05-20 20:07:00,
2013-05-20 14:08:00,52.2,30.4,29.75,WSW,252,12.0,18.0,43,0.00,,,0.00,Wunderground v.1.15,2013-05-20 20:08:00,
2013-05-20 14:11:00,52.0,29.6,29.75,West,259,12.0,12.0,42,0.00,,,0.00,Wunderground v.1.15,2013-05-20 20:11:00,
2013-05-20 14:13:00,51.6,29.8,29.75,West,262,12.0,14.0,43,0.00,,,0.00,Wunderground v.1.15,2013-05-20 20:13:00,
2013-05-20 14:14:00,51.6,29.8,29.75,West,262,12.0,17.0,43,0.00,,,0.00,Wunderground v.1.15,2013-05-20 20:14:00,
2013-05-20 14:16:00,51.5,30.3,29.75,WSW,239,11.0,17.0,44,0.00,,,0.00,Wunderground v.1.15,2013-05-20 20:16:00,
2013-05-20 14:17:00,51.5,29.7,29.75,WSW,243,12.0,17.0,43,0.00,,,0.00,Wunderground v.1.15,2013-05-20 20:17:00,
2013-05-20 14:18:00,51.6,29.8,29.75,WSW,257,11.0,17.0,43,0.00,,,0.00,Wunderground v.1.15,2013-05-20 20:18:00,
2013-05-20 14:22:00,51.5,29.1,29.75,WSW,243,11.0,15.0,42,0.00,,,0.00,Wunderground v.1.15,2013-05-20 20:22:00,
2013-05-20 14:24:00,51.6,29.8,29.75,SSW,204,9.0,15.0,43,0.00,,,0.00,Wunderground v.1.15,2013-05-20 20:24:00,
2013-05-20 14:25:00,51.7,29.9,29.75,WSW,252,9.0,15.0,43,0.00,,,0.00,Wunderground v.1.15,2013-05-20 20:25:00,
2013-05-20 14:29:00,52.1,29.7,29.75,WSW,252,8.0,15.0,42,0.00,,,0.00,Wunderground v.1.15,2013-05-20 20:29:00,
2013-05-20 14:31:00,52.2,29.8,29.75,West,263,7.0,8.0,42,0.00,,,0.00,Wunderground v.1.15,2013-05-20 20:31:00,
2013-05-20 14:32:00,52.2,29.2,29.75,SSW,207,7.0,8.0,41,0.00,,,0.00,Wunderground v.1.15,2013-05-20 20:32:00,
2013-05-20 14:35:00,52.3,29.9,29.75,SW,229,7.0,8.0,42,0.00,,,0.00,Wunderground v.1.15,2013-05-20 20:35:00,
2013-05-20 14:36:00,52.4,30.0,29.75,West,276,7.0,9.0,42,0.00,,,0.00,Wunderground v.1.15,2013-05-20 20:36:00,
2013-05-20 14:38:00,52.3,29.3,29.75,SW,222,7.0,9.0,41,0.00,,,0.00,Wunderground v.1.15,2013-05-20 20:38:00,
2013-05-20 14:41:00,52.3,29.3,29.75,SW,228,8.0,11.0,41,0.00,,,0.00,Wunderground v.1.15,2013-05-20 20:41:00,
2013-05-20 14:44:00,52.1,29.7,29.75,WNW,293,8.0,11.0,42,0.00,,,0.00,Wunderground v.1.15,2013-05-20 20:44:00,
2013-05-20 14:46:00,52.2,29.2,29.75,SW,225,8.0,11.0,41,0.00,,,0.00,Wunderground v.1.15,2013-05-20 20:46:00,
2013-05-20 14:48:00,52.1,29.1,29.75,SSW,205,8.0,11.0,41,0.00,,,0.00,Wunderground v.1.15,2013-05-20 20:48:00,
2013-05-20 14:50:00,52.1,29.1,29.75,West,262,9.0,9.0,41,0.00,,,0.00,Wunderground v.1.15,2013-05-20 20:50:00,
2013-05-20 14:54:00,52.3,29.3,29.75,SSW,208,7.0,9.0,41,0.00,,,0.00,Wunderground v.1.15,2013-05-20 20:54:00,
2013-05-20 14:56:00,52.8,29.7,29.75,WSW,242,7.0,10.0,41,0.00,,,0.00,Wunderground v.1.15,2013-05-20 20:56:00,
2013-05-20 14:57:00,52.8,29.1,29.75,WSW,239,7.0,10.0,40,0.00,,,0.00,Wunderground v.1.15,2013-05-20 20:57:00,
2013-05-20 15:00:00,52.8,29.1,29.75,WSW,255,7.0,11.0,40,0.00,,,0.00,Wunderground v.1.15,2013-05-20 21:00:00,
2013-05-20 15:03:00,52.8,29.1,29.75,WSW,255,8.0,11.0,40,0.00,,,0.00,Wunderground v.1.15,2013-05-20 21:03:00,
2013-05-20 15:04:00,52.8,29.1,29.75,West,260,8.0,11.0,40,0.00,,,0.00,Wunderground v.1.15,2013-05-20 21:04:00,
2013-05-20 15:06:00,52.8,29.1,29.75,West,260,9.0,11.0,40,0.00,,,0.00,Wunderground v.1.15,2013-05-20 21:06:00,
2013-05-20 15:07:00,52.8,29.1,29.75,West,270,8.0,11.0,40,0.00,,,0.00,Wunderground v.1.15,2013-05-20 21:07:00,
2013-05-20 15:09:00,53.0,29.3,29.75,West,273,8.0,11.0,40,0.00,,,0.00,Wunderground v.1.15,2013-05-20 21:09:00,
2013-05-20 15:10:00,53.0,29.3,29.75,West,262,8.0,11.0,40,0.00,,,0.00,Wunderground v.1.15,2013-05-20 21:10:00,
2013-05-20 15:14:00,52.9,29.8,29.75,West,269,8.0,12.0,41,0.00,,,0.00,Wunderground v.1.15,2013-05-20 21:14:00,
2013-05-20 15:15:00,52.8,29.7,29.75,West,269,8.0,12.0,41,0.00,,,0.00,Wunderground v.1.15,2013-05-20 21:15:00,
2013-05-20 15:18:00,52.5,29.5,29.75,WNW,288,9.0,12.0,41,0.00,,,0.00,Wunderground v.1.15,2013-05-20 21:18:00,
2013-05-20 15:21:00,52.3,29.9,29.75,WSW,255,9.0,9.0,42,0.00,,,0.00,Wunderground v.1.15,2013-05-20 21:21:00,
2013-05-20 15:22:00,52.3,29.9,29.76,West,274,8.0,13.0,42,0.00,,,0.00,Wunderground v.1.15,2013-05-20 21:22:00,
2013-05-20 15:24:00,52.2,29.2,29.76,West,276,9.0,14.0,41,0.00,,,0.00,Wunderground v.1.15,2013-05-20 21:24:00,
2013-05-20 15:25:00,52.2,29.8,29.76,NW,319,9.0,14.0,42,0.00,,,0.00,Wunderground v.1.15,2013-05-20 21:25:00,
2013-05-20 15:27:00,52.0,29.6,29.76,WNW,291,9.0,14.0,42,0.00,,,0.00,Wunderground v.1.15,2013-05-20 21:27:00,
2013-05-20 15:32:00,52.1,29.1,29.76,West,281,10.0,11.0,41,0.00,,,0.00,Wunderground v.1.15,2013-05-20 21:32:00,
2013-05-20 15:33:00,52.0,29.0,29.76,WNW,283,10.0,11.0,41,0.00,,,0.00,Wunderground v.1.15,2013-05-20 21:33:00,
2013-05-20 15:34:00,52.0,29.0,29.76,West,278,10.0,13.0,41,0.00,,,0.00,Wunderground v.1.15,2013-05-20 21:34:00,
2013-05-20 15:35:00,51.8,28.8,29.76,West,262,10.0,15.0,41,0.00,,,0.00,Wunderground v.1.15,2013-05-20 21:35:00,
2013-05-20 15:37:00,51.8,28.8,29.76,West,278,10.0,15.0,41,0.00,,,0.00,Wunderground v.1.15,2013-05-20 21:37:00,
2013-05-20 15:38:00,51.8,29.4,29.76,West,280,10.0,15.0,42,0.00,,,0.00,Wunderground v.1.15,2013-05-20 21:38:00,
2013-05-20 15:41:00,51.8,28.8,29.76,West,280,10.0,11.0,41,0.00,,,0.00,Wunderground v.1.15,2013-05-20 21:41:00,
2013-05-20 15:42:00,51.8,28.8,29.76,WSW,256,10.0,11.0,41,0.00,,,0.00,Wunderground v.1.15,2013-05-20 21:42:00,
2013-05-20 15:44:00,51.7,28.7,29.76,West,267,10.0,11.0,41,0.00,,,0.00,Wunderground v.1.15,2013-05-20 21:44:00,
2013-05-20 15:47:00,51.7,28.7,29.76,WNW,283,9.0,17.0,41,0.00,,,0.00,Wunderground v.1.15,2013-05-20 21:47:00,
2013-05-20 15:48:00,51.7,29.3,29.76,SW,221,9.0,17.0,42,0.00,,,0.00,Wunderground v.1.15,2013-05-20 21:48:00,
2013-05-20 15:49:00,51.7,29.3,29.76,WSW,243,10.0,17.0,42,0.00,,,0.00,Wunderground v.1.15,2013-05-20 21:49:00,
2013-05-20 15:50:00,51.6,29.2,29.76,West,268,10.0,11.0,42,0.00,,,0.00,Wunderground v.1.15,2013-05-20 21:50:00,
2013-05-20 15:53:00,51.5,29.1,29.76,WNW,283,11.0,14.0,42,0.00,,,0.00,Wunderground v.1.15,2013-05-20 21:53:00,
2013-05-20 15:55:00,51.6,29.8,29.76,West,262,10.0,14.0,43,0.00,,,0.00,Wunderground v.1.15,2013-05-20 21:55:00,
2013-05-20 15:56:00,51.6,28.6,29.76,WSW,249,10.0,14.0,41,0.00,,,0.00,Wunderground v.1.15,2013-05-20 21:56:00,
2013-05-20 15:59:00,51.8,28.8,29.76,WNW,294,9.0,14.0,41,0.00,,,0.00,Wunderground v.1.15,2013-05-20 21:59:00,
2013-05-20 16:00:00,51.9,29.5,29.76,WNW,295,8.0,8.0,42,0.00,,,0.00,Wunderground v.1.15,2013-05-20 22:00:00,
2013-05-20 16:01:00,52.0,29.6,29.76,SW,220,7.0,8.0,42,0.00,,,0.00,Wunderground v.1.15,2013-05-20 22:01:00,
2013-05-20 16:03:00,52.2,29.2,29.76,West,262,7.0,8.0,41,0.00,,,0.00,Wunderground v.1.15,2013-05-20 22:03:00,
2013-05-20 16:05:00,52.1,28.5,29.76,SW,222,8.0,15.0,40,0.00,,,0.00,Wunderground v.1.15,2013-05-20 22:05:00,
2013-05-20 16:06:00,52.1,28.5,29.76,WNW,283,8.0,15.0,40,0.00,,,0.00,Wunderground v.1.15,2013-05-20 22:06:00,
2013-05-20 16:10:00,51.7,28.7,29.76,West,277,9.0,9.0,41,0.00,,,0.00,Wunderground v.1.15,2013-05-20 22:10:00,
2013-05-20 16:11:00,51.6,28.6,29.76,West,263,10.0,13.0,41,0.00,,,0.00,Wunderground v.1.15,2013-05-20 22:11:00,
2013-05-20 16:13:00,51.1,29.9,29.76,WSW,255,13.0,16.0,44,0.00,,,0.00,Wunderground v.1.15,2013-05-20 22:13:00,
2013-05-20 16:16:00,50.8,30.2,29.76,SW,234,12.0,16.0,45,0.00,,,0.00,Wunderground v.1.15,2013-05-20 22:16:00,
2013-05-20 16:18:00,50.7,29.6,29.76,West,281,13.0,16.0,44,0.00,,,0.00,Wunderground v.1.15,2013-05-20 22:18:00,
2013-05-20 16:19:00,50.7,29.6,29.76,West,280,12.0,16.0,44,0.00,,,0.00,Wunderground v.1.15,2013-05-20 22:19:00,
2013-05-20 16:20:00,50.7,29.6,29.76,West,280,12.0,14.0,44,0.00,,,0.00,Wunderground v.1.15,2013-05-20 22:20:00,
2013-05-20 16:22:00,50.6,30.0,29.77,SW,220,10.0,14.0,45,0.00,,,0.00,Wunderground v.1.15,2013-05-20 22:22:00,
2013-05-20 16:26:00,51.1,30.5,29.77,West,281,9.0,14.0,45,0.00,,,0.00,Wunderground v.1.15,2013-05-20 22:26:00,
2013-05-20 16:28:00,51.2,30.6,29.77,SSW,201,8.0,14.0,45,0.00,,,0.00,Wunderground v.1.15,2013-05-20 22:28:00,
2013-05-20 16:31:00,51.1,29.9,29.77,West,271,8.0,9.0,44,0.00,,,0.00,Wunderground v.1.15,2013-05-20 22:31:00,
2013-05-20 16:32:00,51.1,30.5,29.77,West,278,8.0,9.0,45,0.00,,,0.00,Wunderground v.1.15,2013-05-20 22:32:00,
2013-05-20 16:35:00,50.8,30.7,29.76,SW,218,9.0,11.0,46,0.00,,,0.00,Wunderground v.1.15,2013-05-20 22:35:00,
2013-05-20 16:37:00,50.7,30.1,29.76,West,267,9.0,11.0,45,0.00,,,0.00,Wunderground v.1.15,2013-05-20 22:37:00,
2013-05-20 16:39:00,50.7,30.7,29.77,West,273,9.0,11.0,46,0.00,,,0.00,Wunderground v.1.15,2013-05-20 22:39:00,
2013-05-20 16:40:00,50.8,30.2,29.77,NW,314,10.0,11.0,45,0.00,,,0.00,Wunderground v.1.15,2013-05-20 22:40:00,
2013-05-20 16:44:00,50.8,30.2,29.77,SW,231,10.0,11.0,45,0.00,,,0.00,Wunderground v.1.15,2013-05-20 22:44:00,
2013-05-20 16:45:00,50.7,30.7,29.77,West,267,10.0,11.0,46,0.00,,,0.00,Wunderground v.1.15,2013-05-20 22:45:00,
2013-05-20 16:46:00,50.6,30.0,29.77,SSW,204,10.0,13.0,45,0.00,,,0.00,Wunderground v.1.15,2013-05-20 22:46:00,
2013-05-20 16:47:00,50.5,29.9,29.77,WSW,246,10.0,17.0,45,0.00,,,0.00,Wunderground v.1.15,2013-05-20 22:47:00,
2013-05-20 16:48:00,50.4,29.8,29.77,West,259,11.0,17.0,45,0.00,,,0.00,Wunderground v.1.15,2013-05-20 22:48:00,
2013-05-20 16:51:00,50.3,30.3,29.77,West,274,12.0,12.0,46,0.00,,,0.00,Wunderground v.1.15,2013-05-20 22:51:00,
2013-05-20 16:52:00,50.4,30.4,29.77,West,281,11.0,12.0,46,0.00,,,0.00,Wunderground v.1.15,2013-05-20 22:52:00,
2013-05-20 16:55:00,50.8,30.7,29.77,SW,225,11.0,12.0,46,0.00,,,0.00,Wunderground v.1.15,2013-05-20 22:55:00,
2013-05-20 16:56:00,50.9,30.8,29.77,SW,224,11.0,12.0,46,0.00,,,0.00,Wunderground v.1.15,2013-05-20 22:56:00,
2013-05-20 16:57:00,50.9,30.8,29.77,West,281,11.0,12.0,46,0.00,,,0.00,Wunderground v.1.15,2013-05-20 22:57:00,
2013-05-20 16:59:00,50.8,30.7,29.77,WSW,255,10.0,22.0,46,0.00,,,0.00,Wunderground v.1.15,2013-05-20 22:59:00,
2013-05-20 17:01:00,51.0,30.9,29.77,West,279,10.0,10.0,46,0.00,,,0.00,Wunderground v.1.15,2013-05-20 23:01:00,
2013-05-20 17:03:00,51.0,30.4,29.77,WSW,242,10.0,14.0,45,0.00,,,0.00,Wunderground v.1.15,2013-05-20 23:03:00,
2013-05-20 17:04:00,51.0,29.8,29.76,SW,222,10.0,14.0,44,0.00,,,0.00,Wunderground v.1.15,2013-05-20 23:04:00,
2013-05-20 17:05:00,51.2,30.0,29.77,SW,225,10.0,15.0,44,0.00,,,0.00,Wunderground v.1.15,2013-05-20 23:05:00,
2013-05-20 17:07:00,51.2,30.0,29.77,SW,219,11.0,15.0,44,0.00,,,0.00,Wunderground v.1.15,2013-05-20 23:07:00,
2013-05-20 17:10:00,51.2,30.0,29.77,West,270,11.0,11.0,44,0.00,,,0.00,Wunderground v.1.15,2013-05-20 23:10:00,
2013-05-20 17:12:00,51.1,29.9,29.77,West,260,12.0,13.0,44,0.00,,,0.00,Wunderground v.1.15,2013-05-20 23:12:00,
2013-05-20 17:13:00,51.0,30.4,29.77,WSW,257,12.0,14.0,45,0.00,,,0.00,Wunderground v.1.15,2013-05-20 23:13:00,
2013-05-20 17:17:00,50.5,30.5,29.77,SW,236,12.0,14.0,46,0.00,,,0.00,Wunderground v.1.15,2013-05-20 23:17:00,
2013-05-20 17:18:00,50.3,30.3,29.77,WSW,255,12.0,14.0,46,0.00,,,0.00,Wunderground v.1.15,2013-05-20 23:18:00,
2013-05-20 17:19:00,50.2,30.7,29.76,West,271,13.0,15.0,47,0.00,,,0.00,Wunderground v.1.15,2013-05-20 23:19:00,
2013-05-20 17:21:00,50.0,30.5,29.77,West,270,13.0,13.0,47,0.00,,,0.00,Wunderground v.1.15,2013-05-20 23:21:00,
2013-05-20 17:24:00,50.2,30.2,29.77,SW,226,13.0,18.0,46,0.00,,,0.00,Wunderground v.1.15,2013-05-20 23:24:00,
2013-05-20 17:26:00,50.4,30.4,29.77,West,266,13.0,18.0,46,0.00,,,0.00,Wunderground v.1.15,2013-05-20 23:26:00,
2013-05-20 17:27:00,50.5,30.5,29.77,WNW,299,12.0,18.0,46,0.00,,,0.00,Wunderground v.1.15,2013-05-20 23:27:00,
2013-05-20 17:31:00,50.5,29.9,29.77,West,259,12.0,18.0,45,0.00,,,0.00,Wunderground v.1.15,2013-05-20 23:31:00,
2013-05-20 17:32:00,50.5,29.9,29.77,SW,234,11.0,18.0,45,0.00,,,0.00,Wunderground v.1.15,2013-05-20 23:32:00,
2013-05-20 17:33:00,50.5,29.9,29.77,WSW,246,11.0,18.0,45,0.00,,,0.00,Wunderground v.1.15,2013-05-20 23:33:00,
2013-05-20 17:38:00,50.6,30.0,29.78,WNW,298,11.0,18.0,45,0.00,,,0.00,Wunderground v.1.15,2013-05-20 23:38:00,
2013-05-20 17:39:00,50.6,29.5,29.78,West,274,11.0,18.0,44,0.00,,,0.00,Wunderground v.1.15,2013-05-20 23:39:00,
2013-05-20 17:41:00,50.6,29.5,29.78,WSW,239,10.0,10.0,44,0.00,,,0.00,Wunderground v.1.15,2013-05-20 23:41:00,
2013-05-20 17:42:00,50.6,29.5,29.78,North,350,9.0,10.0,44,0.00,,,0.00,Wunderground v.1.15,2013-05-20 23:42:00,
2013-05-20 17:46:00,50.4,29.3,29.78,WNW,297,8.0,12.0,44,0.00,,,0.00,Wunderground v.1.15,2013-05-20 23:46:00,
2013-05-20 17:47:00,50.3,29.2,29.78,West,276,8.0,12.0,44,0.00,,,0.00,Wunderground v.1.15,2013-05-20 23:47:00,
2013-05-20 17:48:00,50.3,29.2,29.78,West,271,8.0,12.0,44,0.00,,,0.00,Wunderground v.1.15,2013-05-20 23:48:00,
2013-05-20 17:51:00,50.1,29.0,29.78,WNW,293,9.0,11.0,44,0.00,,,0.00,Wunderground v.1.15,2013-05-20 23:51:00,
2013-05-20 17:53:00,50.0,28.9,29.78,West,260,9.0,11.0,44,0.00,,,0.00,Wunderground v.1.15,2013-05-20 23:53:00,
2013-05-20 17:55:00,50.0,28.9,29.78,WSW,249,9.0,15.0,44,0.00,,,0.00,Wunderground v.1.15,2013-05-20 23:55:00,
2013-05-20 17:56:00,49.9,28.8,29.78,WSW,252,9.0,15.0,44,0.00,,,0.00,Wunderground v.1.15,2013-05-20 23:56:00,
2013-05-20 17:59:00,49.8,29.3,29.77,West,259,9.0,15.0,45,0.00,,,0.00,Wunderground v.1.15,2013-05-20 23:59:00,
2013-05-20 18:00:00,49.9,29.4,29.78,West,274,8.0,13.0,45,0.00,,,0.00,Wunderground v.1.15,2013-05-21 00:00:00,
2013-05-20 18:02:00,49.9,28.8,29.78,WSW,257,9.0,14.0,44,0.00,,,0.00,Wunderground v.1.15,2013-05-21 00:02:00,
2013-05-20 18:05:00,49.5,29.0,29.78,SW,236,10.0,14.0,45,0.00,,,0.00,Wunderground v.1.15,2013-05-21 00:05:00,
2013-05-20 18:06:00,49.4,28.9,29.78,WSW,252,9.0,14.0,45,0.00,,,0.00,Wunderground v.1.15,2013-05-21 00:06:00,
2013-05-20 18:07:00,49.4,28.9,29.78,WNW,282,10.0,14.0,45,0.00,,,0.00,Wunderground v.1.15,2013-05-21 00:07:00,
2013-05-20 18:09:00,49.2,29.8,29.78,West,273,10.0,20.0,47,0.00,,,0.00,Wunderground v.1.15,2013-05-21 00:09:00,
2013-05-20 18:11:00,48.8,30.5,29.79,West,264,11.0,14.0,49,0.00,,,0.00,Wunderground v.1.15,2013-05-21 00:11:00,
2013-05-20 18:13:00,48.3,30.0,29.79,West,266,11.0,14.0,49,0.00,,,0.00,Wunderground v.1.15,2013-05-21 00:13:00,
2013-05-20 18:15:00,48.0,29.7,29.79,West,261,11.0,14.0,49,0.00,,,0.00,Wunderground v.1.15,2013-05-21 00:15:00,
2013-05-20 18:18:00,47.9,29.6,29.80,West,272,12.0,15.0,49,0.00,,,0.00,Wunderground v.1.15,2013-05-21 00:18:00,
2013-05-20 18:21:00,48.0,29.2,29.80,SW,229,12.0,12.0,48,0.00,,,0.00,Wunderground v.1.15,2013-05-21 00:21:00,
2013-05-20 18:23:00,48.1,28.3,29.80,WSW,256,11.0,12.0,46,0.00,,,0.00,Wunderground v.1.15,2013-05-21 00:23:00,
2013-05-20 18:24:00,48.2,28.4,29.79,West,278,11.0,12.0,46,0.00,,,0.00,Wunderground v.1.15,2013-05-21 00:24:00,
2013-05-20 18:27:00,48.3,27.9,29.80,SW,220,10.0,12.0,45,0.00,,,0.00,Wunderground v.1.15,2013-05-21 00:27:00,
2013-05-20 18:28:00,48.3,27.9,29.80,WSW,257,10.0,12.0,45,0.00,,,0.00,Wunderground v.1.15,2013-05-21 00:28:00,
2013-05-20 18:32:00,48.2,28.4,29.80,WNW,285,8.0,13.0,46,0.00,,,0.00,Wunderground v.1.15,2013-05-21 00:32:00,
2013-05-20 18:34:00,48.1,28.3,29.80,West,264,7.0,13.0,46,0.00,,,0.00,Wunderground v.1.15,2013-05-21 00:34:00,
2013-05-20 18:36:00,48.0,28.2,29.80,West,276,7.0,14.0,46,0.00,,,0.00,Wunderground v.1.15,2013-05-21 00:36:00,
2013-05-20 18:39:00,47.8,28.0,29.80,West,259,9.0,14.0,46,0.00,,,0.00,Wunderground v.1.15,2013-05-21 00:39:00,
2013-05-20 18:40:00,47.7,27.9,29.81,West,260,9.0,9.0,46,0.00,,,0.00,Wunderground v.1.15,2013-05-21 00:40:00,
2013-05-20 18:41:00,47.6,27.8,29.81,West,266,9.0,12.0,46,0.00,,,0.00,Wunderground v.1.15,2013-05-21 00:41:00,
2013-05-20 18:43:00,47.4,28.2,29.81,WNW,293,10.0,12.0,47,0.00,,,0.00,Wunderground v.1.15,2013-05-21 00:43:00,
2013-05-20 18:47:00,47.3,28.1,29.81,West,273,9.0,12.0,47,0.00,,,0.00,Wunderground v.1.15,2013-05-21 00:47:00,
2013-05-20 18:48:00,47.3,28.1,29.81,SW,236,10.0,12.0,47,0.00,,,0.00,Wunderground v.1.15,2013-05-21 00:48:00,
2013-05-20 18:52:00,47.4,28.2,29.81,WSW,257,8.0,9.0,47,0.00,,,0.00,Wunderground v.1.15,2013-05-21 00:52:00,
2013-05-20 18:53:00,47.4,27.6,29.81,SW,226,8.0,9.0,46,0.00,,,0.00,Wunderground v.1.15,2013-05-21 00:53:00,
2013-05-20 18:56:00,47.6,27.8,29.81,West,271,8.0,13.0,46,0.00,,,0.00,Wunderground v.1.15,2013-05-21 00:56:00,
2013-05-20 18:59:00,47.5,27.7,29.82,WSW,252,8.0,13.0,46,0.00,,,0.00,Wunderground v.1.15,2013-05-21 00:59:00,
2013-05-20 19:00:00,47.5,28.3,29.82,WNW,302,9.0,9.0,47,0.00,,,0.00,Wunderground v.1.15,2013-05-21 01:00:00,
2013-05-20 19:02:00,47.3,28.6,29.82,WSW,242,8.0,10.0,48,0.00,,,0.00,Wunderground v.1.15,2013-05-21 01:02:00,
2013-05-20 19:03:00,47.1,28.9,29.82,SW,236,9.0,12.0,49,0.00,,,0.00,Wunderground v.1.15,2013-05-21 01:03:00,
2013-05-20 19:04:00,47.0,28.8,29.82,West,270,9.0,12.0,49,0.00,,,0.00,Wunderground v.1.15,2013-05-21 01:04:00,
2013-05-20 19:08:00,46.7,29.0,29.82,West,277,7.0,12.0,50,0.00,,,0.00,Wunderground v.1.15,2013-05-21 01:08:00,
2013-05-20 19:09:00,46.6,29.4,29.82,West,276,8.0,12.0,51,0.00,,,0.00,Wunderground v.1.15,2013-05-21 01:09:00,
2013-05-20 19:13:00,46.5,29.3,29.82,West,260,8.0,11.0,51,0.00,,,0.00,Wunderground v.1.15,2013-05-21 01:13:00,
2013-05-20 19:14:00,46.5,29.3,29.82,WSW,245,7.0,11.0,51,0.00,,,0.00,Wunderground v.1.15,2013-05-21 01:14:00,
2013-05-20 19:15:00,46.4,28.8,29.82,WNW,285,7.0,11.0,50,0.00,,,0.00,Wunderground v.1.15,2013-05-21 01:15:00,
2013-05-20 19:16:00,46.4,29.2,29.82,WSW,242,7.0,11.0,51,0.00,,,0.00,Wunderground v.1.15,2013-05-21 01:16:00,
2013-05-20 19:19:00,46.4,28.8,29.82,WSW,246,7.0,12.0,50,0.00,,,0.00,Wunderground v.1.15,2013-05-21 01:19:00,
2013-05-20 19:21:00,46.5,28.8,29.83,WSW,257,7.0,9.0,50,0.00,,,0.00,Wunderground v.1.15,2013-05-21 01:21:00,
2013-05-20 19:24:00,46.5,28.3,29.83,WSW,257,9.0,11.0,49,0.00,,,0.00,Wunderground v.1.15,2013-05-21 01:24:00,
2013-05-20 19:26:00,46.6,28.9,29.83,West,269,8.0,11.0,50,0.00,,,0.00,Wunderground v.1.15,2013-05-21 01:26:00,
2013-05-20 19:27:00,46.6,28.4,29.83,WNW,295,8.0,13.0,49,0.00,,,0.00,Wunderground v.1.15,2013-05-21 01:27:00,
2013-05-20 19:28:00,46.6,28.4,29.83,West,278,9.0,13.0,49,0.00,,,0.00,Wunderground v.1.15,2013-05-21 01:28:00,
2013-05-20 19:31:00,46.6,28.4,29.83,WSW,257,8.0,8.0,49,0.00,,,0.00,Wunderground v.1.15,2013-05-21 01:31:00,
2013-05-20 19:33:00,46.7,29.0,29.83,WSW,250,6.0,8.0,50,0.00,,,0.00,Wunderground v.1.15,2013-05-21 01:33:00,
2013-05-20 19:34:00,46.7,29.0,29.83,WSW,246,6.0,8.0,50,0.00,,,0.00,Wunderground v.1.15,2013-05-21 01:34:00,
2013-05-20 19:38:00,46.6,28.9,29.83,SSW,211,5.0,8.0,50,0.00,,,0.00,Wunderground v.1.15,2013-05-21 01:38:00,
2013-05-20 19:39:00,46.6,28.9,29.83,WSW,246,4.0,8.0,50,0.00,,,0.00,Wunderground v.1.15,2013-05-21 01:39:00,
2013-05-20 19:40:00,46.6,28.4,29.83,West,278,4.0,4.0,49,0.00,,,0.00,Wunderground v.1.15,2013-05-21 01:40:00,
2013-05-20 19:43:00,46.5,28.8,29.83,West,263,4.0,4.0,50,0.00,,,0.00,Wunderground v.1.15,2013-05-21 01:43:00,
2013-05-20 19:45:00,46.6,28.4,29.84,WSW,256,4.0,6.0,49,0.00,,,0.00,Wunderground v.1.15,2013-05-21 01:45:00,
2013-05-20 19:46:00,46.5,28.3,29.84,WNW,285,4.0,6.0,49,0.00,,,0.00,Wunderground v.1.15,2013-05-21 01:46:00,
2013-05-20 19:48:00,46.5,27.8,29.84,West,281,4.0,6.0,48,0.00,,,0.00,Wunderground v.1.15,2013-05-21 01:48:00,
2013-05-20 19:50:00,46.6,27.9,29.84,SW,224,4.0,5.0,48,0.00,,,0.00,Wunderground v.1.15,2013-05-21 01:50:00,
2013-05-20 19:52:00,46.6,27.9,29.84,WNW,284,4.0,5.0,48,0.00,,,0.00,Wunderground v.1.15,2013-05-21 01:52:00,
2013-05-20 19:55:00,46.6,27.4,29.84,West,266,4.0,5.0,47,0.00,,,0.00,Wunderground v.1.15,2013-05-21 01:55:00,
2013-05-20 19:56:00,46.6,27.4,29.83,SSW,194,4.0,5.0,47,0.00,,,0.00,Wunderground v.1.15,2013-05-21 01:56:00,
2013-05-20 19:58:00,46.6,27.4,29.84,West,266,4.0,5.0,47,0.00,,,0.00,Wunderground v.1.15,2013-05-21 01:58:00,
2013-05-20 20:00:00,46.6,26.9,29.84,SW,226,4.0,5.0,46,0.00,,,0.00,Wunderground v.1.15,2013-05-21 02:00:00,
2013-05-20 20:04:00,46.6,27.4,29.84,NW,305,4.0,5.0,47,0.00,,,0.00,Wunderground v.1.15,2013-05-21 02:04:00,
2013-05-20 20:06:00,46.6,27.4,29.84,WSW,239,4.0,11.0,47,0.00,,,0.00,Wunderground v.1.15,2013-05-21 02:06:00,
2013-05-20 20:08:00,46.5,27.3,29.84,West,260,4.0,11.0,47,0.00,,,0.00,Wunderground v.1.15,2013-05-21 02:08:00,
2013-05-20 20:10:00,46.5,27.3,29.84,West,262,4.0,8.0,47,0.00,,,0.00,Wunderground v.1.15,2013-05-21 02:10:00,
2013-05-20 20:11:00,46.5,27.8,29.84,WNW,288,4.0,8.0,48,0.00,,,0.00,Wunderground v.1.15,2013-05-21 02:11:00,
2013-05-20 20:12:00,46.4,27.8,29.84,West,280,5.0,8.0,48,0.00,,,0.00,Wunderground v.1.15,2013-05-21 02:12:00,
2013-05-20 20:15:00,46.3,27.7,29.84,West,270,5.0,8.0,48,0.00,,,0.00,Wunderground v.1.15,2013-05-21 02:15:00,
2013-05-20 20:17:00,46.3,27.7,29.84,SW,229,5.0,8.0,48,0.00,,,0.00,Wunderground v.1.15,2013-05-21 02:17:00,
2013-05-20 20:18:00,46.3,28.2,29.85,West,270,5.0,8.0,49,0.00,,,0.00,Wunderground v.1.15,2013-05-21 02:18:00,
2013-05-20 20:21:00,46.2,28.1,29.85,West,259,5.0,5.0,49,0.00,,,0.00,Wunderground v.1.15,2013-05-21 02:21:00,
2013-05-20 20:24:00,46.1,28.0,29.85,SW,232,5.0,5.0,49,0.00,,,0.00,Wunderground v.1.15,2013-05-21 02:24:00,
2013-05-20 20:25:00,46.1,28.0,29.85,WSW,255,4.0,5.0,49,0.00,,,0.00,Wunderground v.1.15,2013-05-21 02:25:00,
2013-05-20 20:26:00,46.1,28.0,29.85,West,263,4.0,5.0,49,0.00,,,0.00,Wunderground v.1.15,2013-05-21 02:26:00,
2013-05-20 20:27:00,46.0,27.9,29.85,West,276,4.0,5.0,49,0.00,,,0.00,Wunderground v.1.15,2013-05-21 02:27:00,
2013-05-20 20:29:00,46.0,28.4,29.85,SW,228,4.0,5.0,50,0.00,,,0.00,Wunderground v.1.15,2013-05-21 02:29:00,
2013-05-20 20:31:00,45.9,28.3,29.84,SSW,198,4.0,5.0,50,0.00,,,0.00,Wunderground v.1.15,2013-05-21 02:31:00,
2013-05-20 20:34:00,45.8,28.2,29.85,SSW,211,3.0,5.0,50,0.00,,,0.00,Wunderground v.1.15,2013-05-21 02:34:00,
2013-05-20 20:37:00,45.7,28.1,29.85,WSW,252,4.0,5.0,50,0.00,,,0.00,Wunderground v.1.15,2013-05-21 02:37:00,
2013-05-20 20:38:00,45.7,28.1,29.85,SW,231,4.0,6.0,50,0.00,,,0.00,Wunderground v.1.15,2013-05-21 02:38:00,
2013-05-20 20:41:00,45.6,27.5,29.85,WSW,249,5.0,8.0,49,0.00,,,0.00,Wunderground v.1.15,2013-05-21 02:41:00,
2013-05-20 20:44:00,45.6,27.5,29.85,SW,222,5.0,9.0,49,0.00,,,0.00,Wunderground v.1.15,2013-05-21 02:44:00,
2013-05-20 20:45:00,45.6,27.5,29.85,SSW,204,5.0,9.0,49,0.00,,,0.00,Wunderground v.1.15,2013-05-21 02:45:00,
2013-05-20 20:46:00,45.5,27.4,29.85,SW,226,5.0,9.0,49,0.00,,,0.00,Wunderground v.1.15,2013-05-21 02:46:00,
2013-05-20 20:47:00,45.5,27.4,29.85,SW,214,6.0,9.0,49,0.00,,,0.00,Wunderground v.1.15,2013-05-21 02:47:00,
2013-05-20 20:48:00,45.5,26.9,29.85,WSW,239,6.0,9.0,48,0.00,,,0.00,Wunderground v.1.15,2013-05-21 02:48:00,
2013-05-20 20:54:00,45.5,26.4,29.86,West,270,5.0,6.0,47,0.00,,,0.00,Wunderground v.1.15,2013-05-21 02:54:00,
2013-05-20 20:55:00,45.5,26.4,29.86,West,280,5.0,8.0,47,0.00,,,0.00,Wunderground v.1.15,2013-05-21 02:55:00,
2013-05-20 20:58:00,45.5,26.4,29.86,WNW,301,4.0,8.0,47,0.00,,,0.00,Wunderground v.1.15,2013-05-21 02:58:00,
2013-05-20 21:00:00,45.4,26.3,29.86,West,260,4.0,4.0,47,0.00,,,0.00,Wunderground v.1.15,2013-05-21 03:00:00,
2013-05-20 21:01:00,45.4,26.3,29.86,SW,224,4.0,4.0,47,0.00,,,0.00,Wunderground v.1.15,2013-05-21 03:01:00,
2013-05-20 21:04:00,45.4,25.8,29.86,West,281,4.0,5.0,46,0.00,,,0.00,Wunderground v.1.15,2013-05-21 03:04:00,
2013-05-20 21:06:00,45.4,25.8,29.86,SW,217,3.0,5.0,46,0.00,,,0.00,Wunderground v.1.15,2013-05-21 03:06:00,
2013-05-20 21:08:00,45.4,25.8,29.86,South,174,3.0,5.0,46,0.00,,,0.00,Wunderground v.1.15,2013-05-21 03:08:00,
2013-05-20 21:10:00,45.3,25.7,29.86,WSW,246,2.0,2.0,46,0.00,,,0.00,Wunderground v.1.15,2013-05-21 03:10:00,
2013-05-20 21:11:00,45.3,26.2,29.86,SW,215,2.0,2.0,47,0.00,,,0.00,Wunderground v.1.15,2013-05-21 03:11:00,
2013-05-20 21:15:00,45.3,26.2,29.86,West,269,2.0,5.0,47,0.00,,,0.00,Wunderground v.1.15,2013-05-21 03:15:00,
2013-05-20 21:17:00,45.3,26.2,29.87,WSW,239,2.0,5.0,47,0.00,,,0.00,Wunderground v.1.15,2013-05-21 03:17:00,
2013-05-20 21:20:00,45.3,26.2,29.87,WSW,245,3.0,3.0,47,0.00,,,0.00,Wunderground v.1.15,2013-05-21 03:20:00,
2013-05-20 21:21:00,45.3,26.7,29.87,WNW,291,3.0,3.0,48,0.00,,,0.00,Wunderground v.1.15,2013-05-21 03:21:00,
2013-05-20 21:23:00,45.3,26.7,29.87,West,270,3.0,3.0,48,0.00,,,0.00,Wunderground v.1.15,2013-05-21 03:23:00,
2013-05-20 21:25:00,45.3,26.7,29.87,West,276,3.0,3.0,48,0.00,,,0.00,Wunderground v.1.15,2013-05-21 03:25:00,
2013-05-20 21:27:00,45.2,26.7,29.87,South,177,2.0,3.0,48,0.00,,,0.00,Wunderground v.1.15,2013-05-21 03:27:00,
2013-05-20 21:29:00,45.2,27.2,29.87,SSW,204,2.0,3.0,49,0.00,,,0.00,Wunderground v.1.15,2013-05-21 03:29:00,
2013-05-20 21:30:00,45.1,27.1,29.87,WSW,239,2.0,3.0,49,0.00,,,0.00,Wunderground v.1.15,2013-05-21 03:30:00,
2013-05-20 21:31:00,45.1,27.1,29.87,West,277,1.0,5.0,49,0.00,,,0.00,Wunderground v.1.15,2013-05-21 03:31:00,
2013-05-20 21:33:00,45.1,27.6,29.87,WSW,253,2.0,7.0,50,0.00,,,0.00,Wunderground v.1.15,2013-05-21 03:33:00,
2013-05-20 21:36:00,45.0,27.5,29.87,West,271,2.0,7.0,50,0.00,,,0.00,Wunderground v.1.15,2013-05-21 03:36:00,
2013-05-20 21:38:00,44.9,27.4,29.88,West,275,2.0,7.0,50,0.00,,,0.00,Wunderground v.1.15,2013-05-21 03:38:00,
2013-05-20 21:41:00,44.8,27.8,29.88,West,260,2.0,2.0,51,0.00,,,0.00,Wunderground v.1.15,2013-05-21 03:41:00,
2013-05-20 21:43:00,44.8,27.8,29.88,South,187,1.0,3.0,51,0.00,,,0.00,Wunderground v.1.15,2013-05-21 03:43:00,
2013-05-20 21:45:00,44.7,28.6,29.88,WSW,251,1.0,3.0,53,0.00,,,0.00,Wunderground v.1.15,2013-05-21 03:45:00,
2013-05-20 21:47:00,44.7,28.1,29.88,South,181,1.0,3.0,52,0.00,,,0.00,Wunderground v.1.15,2013-05-21 03:47:00,
2013-05-20 21:50:00,44.5,28.4,29.87,SW,219,1.0,3.0,53,0.00,,,0.00,Wunderground v.1.15,2013-05-21 03:50:00,
2013-05-20 21:51:00,44.5,28.4,29.88,South,184,1.0,4.0,53,0.00,,,0.00,Wunderground v.1.15,2013-05-21 03:51:00,
2013-05-20 21:52:00,44.4,28.3,29.88,West,274,2.0,4.0,53,0.00,,,0.00,Wunderground v.1.15,2013-05-21 03:52:00,
2013-05-20 21:57:00,44.3,28.7,29.88,SW,225,2.0,4.0,54,0.00,,,0.00,Wunderground v.1.15,2013-05-21 03:57:00,
2013-05-20 22:00:00,44.2,28.6,29.88,WSW,242,2.0,2.0,54,0.00,,,0.00,Wunderground v.1.15,2013-05-21 04:00:00,
2013-05-20 22:01:00,44.1,28.5,29.88,SSW,212,2.0,2.0,54,0.00,,,0.00,Wunderground v.1.15,2013-05-21 04:01:00,
2013-05-20 22:03:00,44.1,28.5,29.88,SW,225,1.0,2.0,54,0.00,,,0.00,Wunderground v.1.15,2013-05-21 04:03:00,
2013-05-20 22:04:00,44.1,28.5,29.87,SSW,201,1.0,2.0,54,0.00,,,0.00,Wunderground v.1.15,2013-05-21 04:04:00,
2013-05-20 22:05:00,44.0,28.4,29.87,SSW,201,1.0,2.0,54,0.00,,,0.00,Wunderground v.1.15,2013-05-21 04:05:00,
2013-05-20 22:06:00,44.0,28.4,29.87,SW,226,1.0,2.0,54,0.00,,,0.00,Wunderground v.1.15,2013-05-21 04:06:00,
2013-05-20 22:10:00,43.6,28.5,29.88,North,11,1.0,1.0,55,0.00,,,0.00,Wunderground v.1.15,2013-05-21 04:10:00,
2013-05-20 22:11:00,43.4,28.3,29.88,NE,43,1.0,2.0,55,0.00,,,0.00,Wunderground v.1.15,2013-05-21 04:11:00,
2013-05-20 22:13:00,43.2,27.7,29.88,NW,322,1.0,2.0,54,0.00,,,0.00,Wunderground v.1.15,2013-05-21 04:13:00,
2013-05-20 22:14:00,43.2,28.1,29.88,NW,322,0.0,2.0,55,0.00,,,0.00,Wunderground v.1.15,2013-05-21 04:14:00,
2013-05-20 22:17:00,43.1,28.0,29.88,NW,321,0.0,2.0,55,0.00,,,0.00,Wunderground v.1.15,2013-05-21 04:17:00,
2013-05-20 22:19:00,42.9,27.4,29.88,NNW,330,0.0,0.0,54,0.00,,,0.00,Wunderground v.1.15,2013-05-21 04:19:00,
2013-05-20 22:20:00,42.9,27.8,29.87,NNW,330,0.0,0.0,55,0.00,,,0.00,Wunderground v.1.15,2013-05-21 04:20:00,
2013-05-20 22:21:00,42.8,28.2,29.87,NW,322,0.0,1.0,56,0.00,,,0.00,Wunderground v.1.15,2013-05-21 04:21:00,
2013-05-20 22:24:00,42.7,26.7,29.88,SSW,200,0.0,2.0,53,0.00,,,0.00,Wunderground v.1.15,2013-05-21 04:24:00,
2013-05-20 22:26:00,42.8,26.8,29.88,SSE,165,1.0,2.0,53,0.00,,,0.00,Wunderground v.1.15,2013-05-21 04:26:00,
2013-05-20 22:30:00,42.8,27.3,29.87,West,281,1.0,1.0,54,0.00,,,0.00,Wunderground v.1.15,2013-05-21 04:30:00,
2013-05-20 22:31:00,42.8,26.8,29.87,WNW,282,1.0,1.0,53,0.00,,,0.00,Wunderground v.1.15,2013-05-21 04:31:00,
2013-05-20 22:32:00,42.7,27.2,29.87,WNW,282,1.0,1.0,54,0.00,,,0.00,Wunderground v.1.15,2013-05-21 04:32:00,
2013-05-20 22:34:00,42.5,26.6,29.87,NE,47,1.0,1.0,53,0.00,,,0.00,Wunderground v.1.15,2013-05-21 04:34:00,
2013-05-20 22:36:00,42.4,25.5,29.88,ENE,75,1.0,2.0,51,0.00,,,0.00,Wunderground v.1.15,2013-05-21 04:36:00,
2013-05-20 22:37:00,42.4,26.0,29.87,WNW,285,1.0,4.0,52,0.00,,,0.00,Wunderground v.1.15,2013-05-21 04:37:00,
2013-05-20 22:40:00,42.9,25.5,29.88,WNW,297,1.0,1.0,50,0.00,,,0.00,Wunderground v.1.15,2013-05-21 04:40:00,
2013-05-20 22:45:00,43.0,24.6,29.88,SSW,211,3.0,7.0,48,0.00,,,0.00,Wunderground v.1.15,2013-05-21 04:45:00,
2013-05-20 22:46:00,43.1,24.7,29.88,West,280,3.0,7.0,48,0.00,,,0.00,Wunderground v.1.15,2013-05-21 04:46:00,
2013-05-20 22:47:00,43.2,24.3,29.88,WNW,289,3.0,7.0,47,0.00,,,0.00,Wunderground v.1.15,2013-05-21 04:47:00,
2013-05-20 22:48:00,43.3,23.9,29.88,WNW,285,3.0,7.0,46,0.00,,,0.00,Wunderground v.1.15,2013-05-21 04:48:00,
2013-05-20 22:51:00,43.5,24.1,29.88,WNW,285,3.0,8.0,46,0.00,,,0.00,Wunderground v.1.15,2013-05-21 04:51:00,
2013-05-20 22:52:00,43.6,24.2,29.88,West,269,4.0,8.0,46,0.00,,,0.00,Wunderground v.1.15,2013-05-21 04:52:00,
2013-05-20 22:54:00,43.8,24.3,29.88,West,263,4.0,8.0,46,0.00,,,0.00,Wunderground v.1.15,2013-05-21 04:54:00,
2013-05-20 22:55:00,43.8,24.3,29.87,West,277,4.0,8.0,46,0.00,,,0.00,Wunderground v.1.15,2013-05-21 04:55:00,
2013-05-20 22:58:00,44.0,24.0,29.88,West,281,5.0,8.0,45,0.00,,,0.00,Wunderground v.1.15,2013-05-21 04:58:00,
2013-05-20 23:00:00,44.1,24.1,29.87,WSW,243,5.0,5.0,45,0.00,,,0.00,Wunderground v.1.15,2013-05-21 05:00:00,
2013-05-20 23:01:00,44.1,24.1,29.87,WSW,246,5.0,5.0,45,0.00,,,0.00,Wunderground v.1.15,2013-05-21 05:01:00,
2013-05-20 23:04:00,44.1,24.1,29.88,West,267,5.0,7.0,45,0.00,,,0.00,Wunderground v.1.15,2013-05-21 05:04:00,
2013-05-20 23:06:00,44.1,24.1,29.88,WNW,291,5.0,7.0,45,0.00,,,0.00,Wunderground v.1.15,2013-05-21 05:06:00,
2013-05-20 23:08:00,44.1,24.1,29.88,WSW,255,4.0,10.0,45,0.00,,,0.00,Wunderground v.1.15,2013-05-21 05:08:00,
2013-05-20 23:11:00,43.8,24.3,29.88,WNW,301,3.0,4.0,46,0.00,,,0.00,Wunderground v.1.15,2013-05-21 05:11:00,
2013-05-20 23:12:00,43.7,23.7,29.88,West,273,3.0,4.0,45,0.00,,,0.00,Wunderground v.1.15,2013-05-21 05:12:00,
2013-05-20 23:14:00,43.7,23.7,29.88,NW,305,3.0,5.0,45,0.00,,,0.00,Wunderground v.1.15,2013-05-21 05:14:00,
2013-05-20 23:15:00,43.8,23.8,29.88,West,271,3.0,5.0,45,0.00,,,0.00,Wunderground v.1.15,2013-05-21 05:15:00,
2013-05-20 23:17:00,43.9,23.9,29.88,WNW,293,3.0,5.0,45,0.00,,,0.00,Wunderground v.1.15,2013-05-21 05:17:00,
2013-05-20 23:19:00,44.0,23.5,29.88,WSW,256,3.0,10.0,44,0.00,,,0.00,Wunderground v.1.15,2013-05-21 05:19:00,
2013-05-20 23:20:00,44.1,23.6,29.88,SW,236,4.0,4.0,44,0.00,,,0.00,Wunderground v.1.15,2013-05-21 05:20:00,
2013-05-20 23:23:00,44.3,23.2,29.88,West,281,4.0,11.0,43,0.00,,,0.00,Wunderground v.1.15,2013-05-21 05:23:00,
2013-05-20 23:26:00,44.4,23.3,29.88,WSW,254,5.0,11.0,43,0.00,,,0.00,Wunderground v.1.15,2013-05-21 05:26:00,
2013-05-20 23:27:00,44.4,23.3,29.88,West,277,5.0,11.0,43,0.00,,,0.00,Wunderground v.1.15,2013-05-21 05:27:00,
2013-05-20 23:31:00,44.5,23.4,29.88,West,276,7.0,8.0,43,0.00,,,0.00,Wunderground v.1.15,2013-05-21 05:31:00,
2013-05-20 23:32:00,44.5,23.4,29.88,WNW,290,7.0,8.0,43,0.00,,,0.00,Wunderground v.1.15,2013-05-21 05:32:00,
2013-05-20 23:33:00,44.6,23.5,29.88,West,271,7.0,8.0,43,0.00,,,0.00,Wunderground v.1.15,2013-05-21 05:33:00,
2013-05-20 23:34:00,44.6,23.5,29.88,West,278,6.0,8.0,43,0.00,,,0.00,Wunderground v.1.15,2013-05-21 05:34:00,
2013-05-20 23:37:00,44.6,23.5,29.88,WSW,238,7.0,9.0,43,0.00,,,0.00,Wunderground v.1.15,2013-05-21 05:37:00,
2013-05-20 23:38:00,44.6,23.5,29.88,West,270,7.0,9.0,43,0.00,,,0.00,Wunderground v.1.15,2013-05-21 05:38:00,
2013-05-20 23:40:00,44.6,23.5,29.88,WSW,255,6.0,6.0,43,0.00,,,0.00,Wunderground v.1.15,2013-05-21 05:40:00,
2013-05-20 23:41:00,44.5,23.9,29.88,West,276,6.0,6.0,44,0.00,,,0.00,Wunderground v.1.15,2013-05-21 05:41:00,
2013-05-20 23:42:00,44.5,23.9,29.88,North,4,5.0,6.0,44,0.00,,,0.00,Wunderground v.1.15,2013-05-21 05:42:00,
2013-05-20 23:44:00,44.3,23.7,29.88,WNW,295,4.0,6.0,44,0.00,,,0.00,Wunderground v.1.15,2013-05-21 05:44:00,
2013-05-20 23:47:00,44.1,24.1,29.88,West,260,3.0,6.0,45,0.00,,,0.00,Wunderground v.1.15,2013-05-21 05:47:00,
2013-05-20 23:48:00,44.1,24.1,29.88,West,271,2.0,6.0,45,0.00,,,0.00,Wunderground v.1.15,2013-05-21 05:48:00,
2013-05-20 23:50:00,44.1,24.1,29.88,West,274,2.0,2.0,45,0.00,,,0.00,Wunderground v.1.15,2013-05-21 05:50:00,
2013-05-20 23:53:00,44.1,23.6,29.88,West,278,2.0,7.0,44,0.00,,,0.00,Wunderground v.1.15,2013-05-21 05:53:00,
2013-05-20 23:54:00,44.1,23.6,29.88,West,264,2.0,7.0,44,0.00,,,0.00,Wunderground v.1.15,2013-05-21 05:54:00,
2013-05-20 23:55:00,44.1,23.6,29.88,WSW,239,2.0,7.0,44,0.00,,,0.00,Wunderground v.1.15,2013-05-21 05:55:00,
2013-05-20 23:56:00,44.1,23.6,29.88,SW,219,2.0,7.0,44,0.00,,,0.00,Wunderground v.1.15,2013-05-21 05:56:00,